Observation data for Bootleg on 01/13/2021      Previous  Date  Next       Current Mesonet Observations  Soil Data  Daily Summary Page  Observations in Plain Language
KBO1 130600Z 24014KT M02/M05 A3016 RMK A01 T10161052  RH  076%=      5-min Rain = 0
KBO1 130601Z 23013KT M02/M05 A3016 RMK A01 T10161053  RH  076%=      5-min Rain = 0
KBO1 130602Z 24014KT M02/M05 A3016 RMK A01 T10181053  RH  076%=      5-min Rain = 0
KBO1 130603Z 24013KT M02/M05 A3016 RMK A01 T10181054  RH  077%=      5-min Rain = 0
KBO1 130604Z 24014KT M02/M05 A3016 RMK A01 T10191054  RH  077%=      5-min Rain = 0
KBO1 130605Z 24013KT M02/M05 A3017 RMK A01 T10201054  RH  077%=      5-min Rain = 0
KBO1 130606Z 24014KT M02/M05 A3017 RMK A01 T10211054  RH  078%=      5-min Rain = 0
KBO1 130607Z 24014KT M02/M05 A3017 RMK A01 T10211054  RH  078%=      5-min Rain = 0
KBO1 130608Z 24014KT M02/M06 A3017 RMK A01 T10211055  RH  078%=      5-min Rain = 0
KBO1 130609Z 24014KT M02/M06 A3017 RMK A01 T10211055  RH  078%=      5-min Rain = 0
KBO1 130610Z 24014KT M02/M06 A3017 RMK A01 T10211055  RH  078%=      5-min Rain = 0
KBO1 130611Z 24014KT M02/M06 A3017 RMK A01 T10221055  RH  078%=      5-min Rain = 0
KBO1 130612Z 24014KT M02/M06 A3017 RMK A01 T10221055  RH  078%=      5-min Rain = 0
KBO1 130613Z 24015KT M02/M06 A3017 RMK A01 T10231055  RH  078%=      5-min Rain = 0
KBO1 130614Z 24016KT M02/M05 A3017 RMK A01 T10211054  RH  078%=      5-min Rain = 0
KBO1 130615Z 24015KT M02/M05 A3017 RMK A01 T10201054  RH  077%=      5-min Rain = 0
KBO1 130616Z 24014KT M02/M05 A3017 RMK A01 T10191054  RH  077%=      5-min Rain = 0
KBO1 130617Z 24014KT M02/M05 A3017 RMK A01 T10181054  RH  076%=      5-min Rain = 0
KBO1 130618Z 24015KT M02/M05 A3017 RMK A01 T10171054  RH  076%=      5-min Rain = 0
KBO1 130619Z 24014KT M02/M05 A3017 RMK A01 T10161054  RH  076%=      5-min Rain = 0
KBO1 130620Z 24015KT M02/M05 A3017 RMK A01 T10151054  RH  075%=      5-min Rain = 0
KBO1 130621Z 24014KT M02/M05 A3017 RMK A01 T10151054  RH  074%=      5-min Rain = 0
KBO1 130622Z 24015KT M01/M05 A3017 RMK A01 T10141054  RH  074%=      5-min Rain = 0
KBO1 130623Z 24016KT M01/M05 A3017 RMK A01 T10141054  RH  074%=      5-min Rain = 0
KBO1 130624Z 24015KT M01/M05 A3017 RMK A01 T10141054  RH  074%=      5-min Rain = 0
KBO1 130625Z 24016KT M01/M06 A3017 RMK A01 T10141055  RH  074%=      5-min Rain = 0
KBO1 130626Z 24015KT M01/M06 A3017 RMK A01 T10141055  RH  074%=      5-min Rain = 0
KBO1 130627Z 24015KT M01/M06 A3017 RMK A01 T10141055  RH  074%=      5-min Rain = 0
KBO1 130628Z 24015KT M02/M06 A3017 RMK A01 T10151055  RH  074%=      5-min Rain = 0
KBO1 130629Z 24015KT M02/M06 A3017 RMK A01 T10151056  RH  074%=      5-min Rain = 0
KBO1 130630Z 24014KT M02/M06 A3017 RMK A01 T10151056  RH  074%=      5-min Rain = 0
KBO1 130631Z 24016KT M02/M06 A3017 RMK A01 T10151056  RH  074%=      5-min Rain = 0
KBO1 130632Z 24015KT M01/M06 A3017 RMK A01 T10141056  RH  073%=      5-min Rain = 0
KBO1 130633Z 24016KT M01/M06 A3017 RMK A01 T10141056  RH  073%=      5-min Rain = 0
KBO1 130634Z 24015KT M01/M06 A3017 RMK A01 T10141056  RH  073%=      5-min Rain = 0
KBO1 130635Z 24015KT M02/M06 A3017 RMK A01 T10151056  RH  073%=      5-min Rain = 0
KBO1 130636Z 24015KT M02/M06 A3017 RMK A01 T10151056  RH  073%=      5-min Rain = 0
KBO1 130637Z 25016KT M02/M06 A3017 RMK A01 T10161057  RH  074%=      5-min Rain = 0
KBO1 130638Z 25016KT M02/M06 A3017 RMK A01 T10161056  RH  074%=      5-min Rain = 0
KBO1 130639Z 25016KT M02/M06 A3017 RMK A01 T10161057  RH  074%=      5-min Rain = 0
KBO1 130640Z 24017KT M02/M06 A3017 RMK A01 T10161057  RH  074%=      5-min Rain = 0
KBO1 130641Z 24017KT M02/M06 A3017 RMK A01 T10161057  RH  074%=      5-min Rain = 0
KBO1 130642Z 24017KT M02/M06 A3017 RMK A01 T10151056  RH  074%=      5-min Rain = 0
KBO1 130643Z 24017KT M02/M06 A3017 RMK A01 T10151056  RH  073%=      5-min Rain = 0
KBO1 130644Z 24018KT M02/M06 A3017 RMK A01 T10151056  RH  073%=      5-min Rain = 0
KBO1 130645Z 24018KT M01/M06 A3017 RMK A01 T10141055  RH  073%=      5-min Rain = 0
KBO1 130646Z 24017KT M01/M06 A3017 RMK A01 T10131055  RH  073%=      5-min Rain = 0
KBO1 130647Z 24018KT M01/M06 A3017 RMK A01 T10131056  RH  073%=      5-min Rain = 0
KBO1 130648Z 24016KT M01/M06 A3017 RMK A01 T10131055  RH  073%=      5-min Rain = 0
KBO1 130649Z 24017KT M01/M06 A3017 RMK A01 T10141056  RH  073%=      5-min Rain = 0
KBO1 130650Z 24015KT M01/M06 A3017 RMK A01 T10141056  RH  073%=      5-min Rain = 0
KBO1 130651Z 24015KT M02/M06 A3017 RMK A01 T10151056  RH  074%=      5-min Rain = 0
KBO1 130652Z 24016KT M02/M06 A3017 RMK A01 T10151056  RH  074%=      5-min Rain = 0
KBO1 130653Z 25015KT M02/M06 A3017 RMK A01 T10161056  RH  074%=      5-min Rain = 0
KBO1 130654Z 24016KT M02/M06 A3017 RMK A01 T10171055  RH  075%=      5-min Rain = 0
KBO1 130655Z 24016KT M02/M06 A3017 RMK A01 T10171055  RH  075%=      5-min Rain = 0
KBO1 130656Z 24016KT M02/M06 A3017 RMK A01 T10171055  RH  075%=      5-min Rain = 0
KBO1 130657Z 24017KT M02/M06 A3017 RMK A01 T10171055  RH  075%=      5-min Rain = 0
KBO1 130658Z 24016KT M02/M06 A3017 RMK A01 T10171055  RH  075%=      5-min Rain = 0
KBO1 130659Z 24016KT M02/M06 A3017 RMK A01 T10181055  RH  076%=      5-min Rain = 0
KBO1 130700Z 25015KT M02/M06 A3017 RMK A01 T10181055  RH  076%=      5-min Rain = 0
KBO1 130701Z 25015KT M02/M06 A3017 RMK A01 T10191055  RH  076%=      5-min Rain = 0
KBO1 130702Z 25014KT M02/M06 A3017 RMK A01 T10191055  RH  077%=      5-min Rain = 0
KBO1 130703Z 26014KT M02/M05 A3018 RMK A01 T10201054  RH  077%=      5-min Rain = 0
KBO1 130704Z 26013KT M02/M05 A3018 RMK A01 T10201054  RH  078%=      5-min Rain = 0
KBO1 130705Z 26014KT M02/M05 A3018 RMK A01 T10211054  RH  078%=      5-min Rain = 0
KBO1 130706Z 25015KT M02/M05 A3017 RMK A01 T10211054  RH  078%=      5-min Rain = 0
KBO1 130707Z 25014KT M02/M05 A3017 RMK A01 T10211053  RH  078%=      5-min Rain = 0
KBO1 130708Z 25015KT M02/M05 A3017 RMK A01 T10211054  RH  078%=      5-min Rain = 0
KBO1 130709Z 25015KT M02/M05 A3017 RMK A01 T10211054  RH  079%=      5-min Rain = 0
KBO1 130710Z 25014KT M02/M05 A3017 RMK A01 T10211054  RH  078%=      5-min Rain = 0
KBO1 130711Z 25014KT M02/M05 A3017 RMK A01 T10221054  RH  079%=      5-min Rain = 0
KBO1 130712Z 25014KT M02/M05 A3017 RMK A01 T10221054  RH  079%=      5-min Rain = 0
KBO1 130713Z 25014KT M02/M05 A3017 RMK A01 T10231054  RH  079%=      5-min Rain = 0
KBO1 130714Z 25013KT M02/M05 A3017 RMK A01 T10231054  RH  079%=      5-min Rain = 0
KBO1 130715Z 25013KT M02/M05 A3016 RMK A01 T10241054  RH  080%=      5-min Rain = 0
KBO1 130716Z 25012KT M02/M05 A3016 RMK A01 T10241054  RH  080%=      5-min Rain = 0
KBO1 130717Z 25013KT M03/M05 A3016 RMK A01 T10251054  RH  080%=      5-min Rain = 0
KBO1 130718Z 25013KT M03/M05 A3016 RMK A01 T10261054  RH  081%=      5-min Rain = 0
KBO1 130719Z 25013KT M03/M06 A3016 RMK A01 T10271055  RH  081%=      5-min Rain = 0
KBO1 130720Z 25013KT M03/M06 A3016 RMK A01 T10271055  RH  081%=      5-min Rain = 0
KBO1 130721Z 25012KT M03/M06 A3016 RMK A01 T10271055  RH  082%=      5-min Rain = 0
KBO1 130722Z 25012KT M03/M06 A3017 RMK A01 T10281055  RH  082%=      5-min Rain = 0
KBO1 130723Z 25014KT M03/M06 A3017 RMK A01 T10281055  RH  082%=      5-min Rain = 0
KBO1 130724Z 25013KT M03/M05 A3017 RMK A01 T10281054  RH  082%=      5-min Rain = 0
KBO1 130725Z 25014KT M03/M05 A3016 RMK A01 T10281054  RH  082%=      5-min Rain = 0
KBO1 130726Z 24014KT M03/M05 A3016 RMK A01 T10291054  RH  083%=      5-min Rain = 0
KBO1 130727Z 24014KT M03/M05 A3016 RMK A01 T10291054  RH  083%=      5-min Rain = 0
KBO1 130728Z 24014KT M03/M05 A3016 RMK A01 T10281054  RH  083%=      5-min Rain = 0
KBO1 130729Z 24015KT M03/M05 A3016 RMK A01 T10281054  RH  082%=      5-min Rain = 0
KBO1 130730Z 24015KT M03/M05 A3016 RMK A01 T10281054  RH  082%=      5-min Rain = 0
KBO1 130731Z 24014KT M03/M05 A3016 RMK A01 T10271054  RH  082%=      5-min Rain = 0
KBO1 130732Z 25015KT M03/M05 A3016 RMK A01 T10271054  RH  082%=      5-min Rain = 0
KBO1 130733Z 25015KT M03/M05 A3016 RMK A01 T10271053  RH  082%=      5-min Rain = 0
KBO1 130734Z 25015KT M03/M05 A3016 RMK A01 T10251053  RH  082%=      5-min Rain = 0
KBO1 130735Z 25014KT M03/M05 A3016 RMK A01 T10251053  RH  081%=      5-min Rain = 0
KBO1 130736Z 25014KT M03/M05 A3016 RMK A01 T10251054  RH  081%=      5-min Rain = 0
KBO1 130737Z 25013KT M03/M05 A3016 RMK A01 T10261054  RH  081%=      5-min Rain = 0
KBO1 130738Z 26013KT M03/M05 A3016 RMK A01 T10261054  RH  081%=      5-min Rain = 0
KBO1 130739Z 26013KT M03/M05 A3016 RMK A01 T10261053  RH  082%=      5-min Rain = 0
KBO1 130740Z 25013KT M03/M05 A3016 RMK A01 T10261053  RH  082%=      5-min Rain = 0
KBO1 130741Z 25014KT M03/M05 A3016 RMK A01 T10261053  RH  082%=      5-min Rain = 0
KBO1 130742Z 25014KT M03/M05 A3016 RMK A01 T10251053  RH  081%=      5-min Rain = 0
KBO1 130743Z 25013KT M03/M05 A3016 RMK A01 T10251053  RH  081%=      5-min Rain = 0
KBO1 130744Z 25013KT M02/M05 A3016 RMK A01 T10231053  RH  080%=      5-min Rain = 0
KBO1 130745Z 25013KT M02/M05 A3016 RMK A01 T10231053  RH  080%=      5-min Rain = 0
KBO1 130746Z 25013KT M02/M05 A3016 RMK A01 T10241053  RH  080%=      5-min Rain = 0
KBO1 130747Z 25013KT M02/M05 A3016 RMK A01 T10241054  RH  080%=      5-min Rain = 0
KBO1 130748Z 25012KT M02/M05 A3016 RMK A01 T10241054  RH  080%=      5-min Rain = 0
KBO1 130749Z 25012KT M03/M06 A3016 RMK A01 T10251055  RH  080%=      5-min Rain = 0
KBO1 130750Z 25011KT M03/M06 A3016 RMK A01 T10271056  RH  081%=      5-min Rain = 0
KBO1 130751Z 26012KT M03/M06 A3016 RMK A01 T10281056  RH  081%=      5-min Rain = 0
KBO1 130752Z 26011KT M03/M06 A3016 RMK A01 T10291056  RH  082%=      5-min Rain = 0
KBO1 130753Z 26010KT M03/M06 A3016 RMK A01 T10301056  RH  082%=      5-min Rain = 0
KBO1 130754Z 27010KT M03/M06 A3016 RMK A01 T10311057  RH  082%=      5-min Rain = 0
KBO1 130755Z 26010KT M03/M06 A3016 RMK A01 T10321057  RH  083%=      5-min Rain = 0
KBO1 130756Z 26011KT M03/M06 A3016 RMK A01 T10331058  RH  083%=      5-min Rain = 0
KBO1 130757Z 25011KT M03/M06 A3016 RMK A01 T10341058  RH  084%=      5-min Rain = 0
KBO1 130758Z 25010KT M03/M06 A3015 RMK A01 T10341057  RH  084%=      5-min Rain = 0
KBO1 130759Z 25011KT M04/M06 A3015 RMK A01 T10351058  RH  084%=      5-min Rain = 0
KBO1 130800Z 25010KT M04/M06 A3015 RMK A01 T10351058  RH  084%=      5-min Rain = 0
KBO1 130801Z 26009KT M04/M06 A3015 RMK A01 T10351058  RH  085%=      5-min Rain = 0
KBO1 130802Z 26009KT M04/M06 A3015 RMK A01 T10351058  RH  084%=      5-min Rain = 0
KBO1 130803Z 26009KT M04/M06 A3015 RMK A01 T10361058  RH  085%=      5-min Rain = 0
KBO1 130804Z 26009KT M04/M06 A3015 RMK A01 T10361058  RH  085%=      5-min Rain = 0
KBO1 130805Z 25009KT M04/M06 A3015 RMK A01 T10371059  RH  085%=      5-min Rain = 0
KBO1 130806Z 25009KT M04/M06 A3015 RMK A01 T10381059  RH  085%=      5-min Rain = 0
KBO1 130807Z 25010KT M04/M06 A3015 RMK A01 T10381059  RH  085%=      5-min Rain = 0
KBO1 130808Z 25010KT M04/M06 A3015 RMK A01 T10391059  RH  085%=      5-min Rain = 0
KBO1 130809Z 25010KT M04/M06 A3015 RMK A01 T10391059  RH  086%=      5-min Rain = 0
KBO1 130810Z 25010KT M04/M06 A3014 RMK A01 T10381059  RH  086%=      5-min Rain = 0
KBO1 130811Z 25010KT M04/M06 A3014 RMK A01 T10381059  RH  086%=      5-min Rain = 0
KBO1 130812Z 25010KT M04/M06 A3014 RMK A01 T10371059  RH  085%=      5-min Rain = 0
KBO1 130813Z 25010KT M04/M06 A3014 RMK A01 T10381059  RH  085%=      5-min Rain = 0
KBO1 130814Z 24010KT M04/M06 A3014 RMK A01 T10371060  RH  085%=      5-min Rain = 0
KBO1 130815Z 25010KT M04/M06 A3014 RMK A01 T10381061  RH  085%=      5-min Rain = 0
KBO1 130816Z 24010KT M04/M06 A3014 RMK A01 T10391061  RH  085%=      5-min Rain = 0
KBO1 130817Z 25011KT M04/M06 A3014 RMK A01 T10391061  RH  085%=      5-min Rain = 0
KBO1 130818Z 25011KT M04/M06 A3014 RMK A01 T10401062  RH  085%=      5-min Rain = 0
KBO1 130819Z 25011KT M04/M06 A3014 RMK A01 T10411062  RH  085%=      5-min Rain = 0
KBO1 130820Z 24011KT M04/M06 A3014 RMK A01 T10411062  RH  085%=      5-min Rain = 0
KBO1 130821Z 24011KT M04/M06 A3014 RMK A01 T10411063  RH  085%=      5-min Rain = 0
KBO1 130822Z 24012KT M04/M06 A3014 RMK A01 T10411063  RH  085%=      5-min Rain = 0
KBO1 130823Z 24012KT M04/M06 A3014 RMK A01 T10411062  RH  085%=      5-min Rain = 0
KBO1 130824Z 24012KT M04/M06 A3014 RMK A01 T10421063  RH  085%=      5-min Rain = 0
KBO1 130825Z 24012KT M04/M06 A3014 RMK A01 T10421064  RH  085%=      5-min Rain = 0
KBO1 130826Z 24011KT M04/M06 A3014 RMK A01 T10431063  RH  086%=      5-min Rain = 0
KBO1 130827Z 25011KT M04/M06 A3014 RMK A01 T10431063  RH  086%=      5-min Rain = 0
KBO1 130828Z 25010KT M04/M06 A3014 RMK A01 T10431063  RH  086%=      5-min Rain = 0
KBO1 130829Z 26011KT M04/M06 A3014 RMK A01 T10431063  RH  086%=      5-min Rain = 0
KBO1 130830Z 26011KT M04/M06 A3014 RMK A01 T10421062  RH  086%=      5-min Rain = 0
KBO1 130831Z 25011KT M04/M06 A3014 RMK A01 T10411061  RH  086%=      5-min Rain = 0
KBO1 130832Z 26012KT M04/M06 A3014 RMK A01 T10411062  RH  086%=      5-min Rain = 0
KBO1 130833Z 26011KT M04/M06 A3014 RMK A01 T10411062  RH  085%=      5-min Rain = 0
KBO1 130834Z 26011KT M04/M06 A3014 RMK A01 T10401062  RH  085%=      5-min Rain = 0
KBO1 130835Z 26011KT M04/M06 A3014 RMK A01 T10411062  RH  085%=      5-min Rain = 0
KBO1 130836Z 26011KT M04/M06 A3014 RMK A01 T10411063  RH  085%=      5-min Rain = 0
KBO1 130837Z 26011KT M04/M06 A3014 RMK A01 T10411063  RH  085%=      5-min Rain = 0
KBO1 130838Z 26011KT M04/M06 A3014 RMK A01 T10411063  RH  084%=      5-min Rain = 0
KBO1 130839Z 26011KT M04/M06 A3013 RMK A01 T10411063  RH  084%=      5-min Rain = 0
KBO1 130840Z 26011KT M04/M06 A3013 RMK A01 T10411063  RH  084%=      5-min Rain = 0
KBO1 130841Z 26012KT M04/M06 A3013 RMK A01 T10411063  RH  084%=      5-min Rain = 0
KBO1 130842Z 26012KT M04/M06 A3013 RMK A01 T10411064  RH  084%=      5-min Rain = 0
KBO1 130843Z 25012KT M04/M06 A3013 RMK A01 T10411064  RH  084%=      5-min Rain = 0
KBO1 130844Z 25012KT M04/M06 A3013 RMK A01 T10411064  RH  084%=      5-min Rain = 0
KBO1 130845Z 26012KT M04/M06 A3013 RMK A01 T10411064  RH  084%=      5-min Rain = 0
KBO1 130846Z 26011KT M04/M06 A3013 RMK A01 T10401064  RH  084%=      5-min Rain = 0
KBO1 130847Z 26012KT M04/M06 A3013 RMK A01 T10401064  RH  083%=      5-min Rain = 0
KBO1 130848Z 26011KT M04/M07 A3013 RMK A01 T10401065  RH  083%=      5-min Rain = 0
KBO1 130849Z 26012KT M04/M07 A3013 RMK A01 T10401065  RH  083%=      5-min Rain = 0
KBO1 130850Z 26012KT M04/M07 A3013 RMK A01 T10391065  RH  083%=      5-min Rain = 0
KBO1 130851Z 26011KT M04/M07 A3013 RMK A01 T10401065  RH  083%=      5-min Rain = 0
KBO1 130852Z 26011KT M04/M07 A3013 RMK A01 T10401066  RH  082%=      5-min Rain = 0
KBO1 130853Z 26011KT M04/M07 A3013 RMK A01 T10401066  RH  082%=      5-min Rain = 0
KBO1 130854Z 26011KT M04/M07 A3013 RMK A01 T10411067  RH  082%=      5-min Rain = 0
KBO1 130855Z 26011KT M04/M07 A3013 RMK A01 T10411067  RH  082%=      5-min Rain = 0
KBO1 130856Z 26011KT M04/M07 A3012 RMK A01 T10411067  RH  082%=      5-min Rain = 0
KBO1 130857Z 26011KT M04/M07 A3012 RMK A01 T10411067  RH  082%=      5-min Rain = 0
KBO1 130858Z 25010KT M04/M07 A3012 RMK A01 T10411068  RH  082%=      5-min Rain = 0
KBO1 130859Z 25011KT M04/M07 A3012 RMK A01 T10411068  RH  082%=      5-min Rain = 0
KBO1 130900Z 25011KT M04/M07 A3012 RMK A01 T10421068  RH  082%=      5-min Rain = 0
KBO1 130901Z 25011KT M04/M07 A3012 RMK A01 T10421069  RH  082%=      5-min Rain = 0
KBO1 130902Z 25010KT M04/M07 A3012 RMK A01 T10431070  RH  082%=      5-min Rain = 0
KBO1 130903Z 25010KT M04/M07 A3012 RMK A01 T10441070  RH  082%=      5-min Rain = 0
KBO1 130904Z 25010KT M05/M07 A3012 RMK A01 T10451070  RH  082%=      5-min Rain = 0
KBO1 130905Z 25010KT M05/M07 A3012 RMK A01 T10451070  RH  083%=      5-min Rain = 0
KBO1 130906Z 25011KT M05/M07 A3012 RMK A01 T10451070  RH  083%=      5-min Rain = 0
KBO1 130907Z 25011KT M05/M07 A3012 RMK A01 T10451069  RH  083%=      5-min Rain = 0
KBO1 130908Z 25011KT M05/M07 A3012 RMK A01 T10451069  RH  083%=      5-min Rain = 0
KBO1 130909Z 25011KT M05/M07 A3012 RMK A01 T10461070  RH  083%=      5-min Rain = 0
KBO1 130910Z 25011KT M05/M07 A3012 RMK A01 T10451069  RH  083%=      5-min Rain = 0
KBO1 130911Z 25011KT M05/M07 A3012 RMK A01 T10461070  RH  083%=      5-min Rain = 0
KBO1 130912Z 25011KT M05/M07 A3011 RMK A01 T10461070  RH  084%=      5-min Rain = 0
KBO1 130913Z 25011KT M05/M07 A3012 RMK A01 T10461070  RH  084%=      5-min Rain = 0
KBO1 130914Z 25011KT M05/M07 A3012 RMK A01 T10471070  RH  084%=      5-min Rain = 0
KBO1 130915Z 26010KT M05/M07 A3012 RMK A01 T10471070  RH  084%=      5-min Rain = 0
KBO1 130916Z 26010KT M05/M07 A3012 RMK A01 T10481071  RH  084%=      5-min Rain = 0
KBO1 130917Z 26010KT M05/M07 A3012 RMK A01 T10491071  RH  084%=      5-min Rain = 0
KBO1 130918Z 26010KT M05/M07 A3012 RMK A01 T10491071  RH  085%=      5-min Rain = 0
KBO1 130919Z 26010KT M05/M07 A3012 RMK A01 T10491071  RH  085%=      5-min Rain = 0
KBO1 130920Z 25010KT M05/M07 A3012 RMK A01 T10501071  RH  085%=      5-min Rain = 0
KBO1 130921Z 25010KT M05/M07 A3012 RMK A01 T10501071  RH  085%=      5-min Rain = 0
KBO1 130922Z 26011KT M05/M07 A3012 RMK A01 T10501071  RH  086%=      5-min Rain = 0
KBO1 130923Z 25011KT M05/M07 A3012 RMK A01 T10501070  RH  086%=      5-min Rain = 0
KBO1 130924Z 25011KT M05/M07 A3012 RMK A01 T10501070  RH  086%=      5-min Rain = 0
KBO1 130925Z 26011KT M05/M07 A3012 RMK A01 T10501070  RH  085%=      5-min Rain = 0
KBO1 130926Z 26011KT M05/M07 A3012 RMK A01 T10501071  RH  085%=      5-min Rain = 0
KBO1 130927Z 25011KT M05/M07 A3012 RMK A01 T10501071  RH  085%=      5-min Rain = 0
KBO1 130928Z 25012KT M05/M07 A3012 RMK A01 T10501072  RH  085%=      5-min Rain = 0
KBO1 130929Z 25012KT M05/M07 A3011 RMK A01 T10501072  RH  085%=      5-min Rain = 0
KBO1 130930Z 26011KT M05/M07 A3011 RMK A01 T10501071  RH  085%=      5-min Rain = 0
KBO1 130931Z 26011KT M05/M07 A3011 RMK A01 T10491070  RH  085%=      5-min Rain = 0
KBO1 130932Z 26012KT M05/M07 A3011 RMK A01 T10491070  RH  085%=      5-min Rain = 0
KBO1 130933Z 25011KT M05/M07 A3011 RMK A01 T10481070  RH  085%=      5-min Rain = 0
KBO1 130934Z 25011KT M05/M07 A3011 RMK A01 T10481071  RH  084%=      5-min Rain = 0
KBO1 130935Z 26011KT M05/M07 A3011 RMK A01 T10481071  RH  084%=      5-min Rain = 0
KBO1 130936Z 26011KT M05/M07 A3011 RMK A01 T10481071  RH  084%=      5-min Rain = 0
KBO1 130937Z 26011KT M05/M07 A3011 RMK A01 T10491072  RH  084%=      5-min Rain = 0
KBO1 130938Z 26011KT M05/M07 A3011 RMK A01 T10491072  RH  084%=      5-min Rain = 0
KBO1 130939Z 26011KT M05/M07 A3011 RMK A01 T10491072  RH  084%=      5-min Rain = 0
KBO1 130940Z 26011KT M05/M07 A3011 RMK A01 T10491073  RH  084%=      5-min Rain = 0
KBO1 130941Z 26011KT M05/M07 A3011 RMK A01 T10491073  RH  083%=      5-min Rain = 0
KBO1 130942Z 26011KT M05/M07 A3011 RMK A01 T10501073  RH  083%=      5-min Rain = 0
KBO1 130943Z 26011KT M05/M07 A3011 RMK A01 T10501073  RH  084%=      5-min Rain = 0
KBO1 130944Z 26011KT M05/M07 A3011 RMK A01 T10501073  RH  083%=      5-min Rain = 0
KBO1 130945Z 26011KT M05/M07 A301 RMK A01 T10491074  RH  083%=      5-min Rain = 0
KBO1 130946Z 26011KT M05/M07 A301 RMK A01 T10491074  RH  082%=      5-min Rain = 0
KBO1 130947Z 25011KT M05/M07 A301 RMK A01 T10491074  RH  082%=      5-min Rain = 0
KBO1 130948Z 25010KT M05/M08 A301 RMK A01 T10491075  RH  082%=      5-min Rain = 0
KBO1 130949Z 25010KT M05/M08 A301 RMK A01 T10491075  RH  082%=      5-min Rain = 0
KBO1 130950Z 25009KT M05/M08 A301 RMK A01 T10501076  RH  082%=      5-min Rain = 0
KBO1 130951Z 25009KT M05/M08 A301 RMK A01 T10501076  RH  082%=      5-min Rain = 0
KBO1 130952Z 24009KT M05/M08 A301 RMK A01 T10511076  RH  082%=      5-min Rain = 0
KBO1 130953Z 24009KT M05/M08 A301 RMK A01 T10511076  RH  083%=      5-min Rain = 0
KBO1 130954Z 24010KT M05/M08 A301 RMK A01 T10521076  RH  083%=      5-min Rain = 0
KBO1 130955Z 24010KT M05/M08 A3009 RMK A01 T10521077  RH  083%=      5-min Rain = 0
KBO1 130956Z 24010KT M05/M08 A3009 RMK A01 T10531078  RH  083%=      5-min Rain = 0
KBO1 130957Z 24011KT M05/M08 A3009 RMK A01 T10541078  RH  083%=      5-min Rain = 0
KBO1 130958Z 25012KT M05/M08 A301 RMK A01 T10541078  RH  083%=      5-min Rain = 0
KBO1 130959Z 25012KT M06/M08 A301 RMK A01 T10551079  RH  083%=      5-min Rain = 0
KBO1 131000Z 25011KT M05/M08 A301 RMK A01 T10541078  RH  083%=      5-min Rain = 0
KBO1 131001Z 25011KT M05/M08 A301 RMK A01 T10541079  RH  083%=      5-min Rain = 0
KBO1 131002Z 25011KT M05/M08 A301 RMK A01 T10541079  RH  083%=      5-min Rain = 0
KBO1 131003Z 25011KT M05/M08 A301 RMK A01 T10541078  RH  083%=      5-min Rain = 0
KBO1 131004Z 25011KT M05/M08 A301 RMK A01 T10541078  RH  083%=      5-min Rain = 0
KBO1 131005Z 26011KT M05/M08 A301 RMK A01 T10531078  RH  083%=      5-min Rain = 0
KBO1 131006Z 26011KT M05/M08 A301 RMK A01 T10531077  RH  083%=      5-min Rain = 0
KBO1 131007Z 26011KT M05/M08 A301 RMK A01 T10531077  RH  083%=      5-min Rain = 0
KBO1 131008Z 25012KT M05/M08 A301 RMK A01 T10521077  RH  082%=      5-min Rain = 0
KBO1 131009Z 25013KT M05/M08 A301 RMK A01 T10521078  RH  082%=      5-min Rain = 0
KBO1 131010Z 25013KT M05/M08 A301 RMK A01 T10531078  RH  082%=      5-min Rain = 0
KBO1 131011Z 25013KT M05/M08 A301 RMK A01 T10531079  RH  082%=      5-min Rain = 0
KBO1 131012Z 25012KT M05/M08 A3009 RMK A01 T10531079  RH  082%=      5-min Rain = 0
KBO1 131013Z 25012KT M05/M08 A3009 RMK A01 T10531079  RH  082%=      5-min Rain = 0
KBO1 131014Z 25012KT M05/M08 A3009 RMK A01 T10521079  RH  082%=      5-min Rain = 0
KBO1 131015Z 25012KT M05/M08 A3009 RMK A01 T10531079  RH  082%=      5-min Rain = 0
KBO1 131016Z 25012KT M05/M08 A3009 RMK A01 T10531080  RH  082%=      5-min Rain = 0
KBO1 131017Z 25012KT M05/M08 A3009 RMK A01 T10541081  RH  082%=      5-min Rain = 0
KBO1 131018Z 25011KT M06/M08 A3009 RMK A01 T10551081  RH  082%=      5-min Rain = 0
KBO1 131019Z 25012KT M06/M08 A3009 RMK A01 T10561080  RH  083%=      5-min Rain = 0
KBO1 131020Z 26013KT M06/M08 A3009 RMK A01 T10561079  RH  084%=      5-min Rain = 0
KBO1 131021Z 26013KT M06/M08 A3009 RMK A01 T10551078  RH  084%=      5-min Rain = 0
KBO1 131022Z 26013KT M05/M08 A3009 RMK A01 T10541078  RH  083%=      5-min Rain = 0
KBO1 131023Z 27013KT M05/M08 A3009 RMK A01 T10531078  RH  083%=      5-min Rain = 0
KBO1 131024Z 27014KT M05/M08 A3009 RMK A01 T10531078  RH  083%=      5-min Rain = 0
KBO1 131025Z 26014KT M05/M08 A3009 RMK A01 T10521077  RH  082%=      5-min Rain = 0
KBO1 131026Z 26014KT M05/M08 A3009 RMK A01 T10511078  RH  082%=      5-min Rain = 0
KBO1 131027Z 26013KT M05/M08 A3009 RMK A01 T10511078  RH  081%=      5-min Rain = 0
KBO1 131028Z 26012KT M05/M08 A3009 RMK A01 T10521079  RH  081%=      5-min Rain = 0
KBO1 131029Z 26012KT M05/M08 A3009 RMK A01 T10531081  RH  081%=      5-min Rain = 0
KBO1 131030Z 26012KT M05/M08 A3009 RMK A01 T10541082  RH  081%=      5-min Rain = 0
KBO1 131031Z 25011KT M06/M08 A3009 RMK A01 T10561083  RH  081%=      5-min Rain = 0
KBO1 131032Z 26011KT M06/M08 A3009 RMK A01 T10561083  RH  081%=      5-min Rain = 0
KBO1 131033Z 26012KT M06/M08 A3009 RMK A01 T10571083  RH  082%=      5-min Rain = 0
KBO1 131034Z 26012KT M06/M08 A3009 RMK A01 T10581083  RH  082%=      5-min Rain = 0
KBO1 131035Z 26012KT M06/M08 A3009 RMK A01 T10581083  RH  082%=      5-min Rain = 0
KBO1 131036Z 25012KT M06/M08 A3009 RMK A01 T10581083  RH  082%=      5-min Rain = 0
KBO1 131037Z 26012KT M06/M08 A3009 RMK A01 T10571083  RH  082%=      5-min Rain = 0
KBO1 131038Z 26011KT M06/M08 A3009 RMK A01 T10571083  RH  082%=      5-min Rain = 0
KBO1 131039Z 26012KT M06/M08 A3008 RMK A01 T10561082  RH  082%=      5-min Rain = 0
KBO1 131040Z 26012KT M05/M08 A3009 RMK A01 T10541080  RH  082%=      5-min Rain = 0
KBO1 131041Z 25012KT M05/M08 A3009 RMK A01 T10521079  RH  082%=      5-min Rain = 0
KBO1 131042Z 26012KT M05/M08 A3008 RMK A01 T10511079  RH  081%=      5-min Rain = 0
KBO1 131043Z 25012KT M05/M08 A3008 RMK A01 T10501079  RH  080%=      5-min Rain = 0
KBO1 131044Z 25012KT M05/M08 A3008 RMK A01 T10491078  RH  080%=      5-min Rain = 0
KBO1 131045Z 25012KT M05/M08 A3008 RMK A01 T10471077  RH  080%=      5-min Rain = 0
KBO1 131046Z 26012KT M05/M08 A3008 RMK A01 T10451077  RH  079%=      5-min Rain = 0
KBO1 131047Z 25012KT M05/M08 A3008 RMK A01 T10451078  RH  078%=      5-min Rain = 0
KBO1 131048Z 25013KT M05/M08 A3008 RMK A01 T10451079  RH  077%=      5-min Rain = 0
KBO1 131049Z 25013KT M05/M08 A3008 RMK A01 T10461080  RH  077%=      5-min Rain = 0
KBO1 131050Z 25013KT M05/M08 A3008 RMK A01 T10471081  RH  077%=      5-min Rain = 0
KBO1 131051Z 25013KT M05/M08 A3008 RMK A01 T10481081  RH  078%=      5-min Rain = 0
KBO1 131052Z 25012KT M05/M08 A3008 RMK A01 T10491081  RH  078%=      5-min Rain = 0
KBO1 131053Z 25012KT M05/M08 A3008 RMK A01 T10491081  RH  078%=      5-min Rain = 0
KBO1 131054Z 25012KT M05/M08 A3008 RMK A01 T10491081  RH  078%=      5-min Rain = 0
KBO1 131055Z 25013KT M05/M08 A3008 RMK A01 T10491081  RH  078%=      5-min Rain = 0
KBO1 131056Z 25013KT M05/M08 A3008 RMK A01 T10481080  RH  078%=      5-min Rain = 0
KBO1 131057Z 25012KT M05/M08 A3008 RMK A01 T10471081  RH  077%=      5-min Rain = 0
KBO1 131058Z 25012KT M05/M08 A3008 RMK A01 T10471082  RH  077%=      5-min Rain = 0
KBO1 131059Z 25012KT M05/M08 A3008 RMK A01 T10481083  RH  077%=      5-min Rain = 0
KBO1 131100Z 25011KT M05/M08 A3008 RMK A01 T10481083  RH  077%=      5-min Rain = 0
KBO1 131101Z 25011KT M05/M08 A3008 RMK A01 T10491083  RH  077%=      5-min Rain = 0
KBO1 131102Z 25011KT M05/M08 A3008 RMK A01 T10491084  RH  077%=      5-min Rain = 0
KBO1 131103Z 25012KT M05/M09 A3008 RMK A01 T10511085  RH  077%=      5-min Rain = 0
KBO1 131104Z 25012KT M05/M09 A3008 RMK A01 T10521086  RH  077%=      5-min Rain = 0
KBO1 131105Z 24013KT M05/M09 A3008 RMK A01 T10521086  RH  077%=      5-min Rain = 0
KBO1 131106Z 24012KT M05/M09 A3008 RMK A01 T10531086  RH  078%=      5-min Rain = 0
KBO1 131107Z 24013KT M05/M09 A3008 RMK A01 T10541086  RH  078%=      5-min Rain = 0
KBO1 131108Z 24013KT M05/M09 A3008 RMK A01 T10541086  RH  078%=      5-min Rain = 0
KBO1 131109Z 24013KT M05/M09 A3008 RMK A01 T10541086  RH  078%=      5-min Rain = 0
KBO1 131110Z 24012KT M05/M09 A3008 RMK A01 T10541086  RH  079%=      5-min Rain = 0
KBO1 131111Z 24012KT M05/M09 A3008 RMK A01 T10541086  RH  079%=      5-min Rain = 0
KBO1 131112Z 25012KT M05/M09 A3008 RMK A01 T10541085  RH  079%=      5-min Rain = 0
KBO1 131113Z 25011KT M05/M09 A3008 RMK A01 T10531085  RH  079%=      5-min Rain = 0
KBO1 131114Z 25009KT M05/M08 A3008 RMK A01 T10521084  RH  078%=      5-min Rain = 0
KBO1 131115Z 26010KT M05/M08 A3008 RMK A01 T10501084  RH  077%=      5-min Rain = 0
KBO1 131116Z 26011KT M05/M08 A3008 RMK A01 T10501084  RH  077%=      5-min Rain = 0
KBO1 131117Z 26011KT M05/M09 A3008 RMK A01 T10501085  RH  077%=      5-min Rain = 0
KBO1 131118Z 25012KT M05/M09 A3008 RMK A01 T10501085  RH  076%=      5-min Rain = 0
KBO1 131119Z 25011KT M05/M09 A3008 RMK A01 T10501086  RH  076%=      5-min Rain = 0
KBO1 131120Z 25011KT M05/M09 A3007 RMK A01 T10501086  RH  076%=      5-min Rain = 0
KBO1 131121Z 25011KT M05/M09 A3007 RMK A01 T10501086  RH  076%=      5-min Rain = 0
KBO1 131122Z 24010KT M05/M09 A3007 RMK A01 T10501086  RH  076%=      5-min Rain = 0
KBO1 131123Z 25011KT M05/M09 A3007 RMK A01 T10501086  RH  076%=      5-min Rain = 0
KBO1 131124Z 24011KT M05/M09 A3007 RMK A01 T10501086  RH  076%=      5-min Rain = 0
KBO1 131125Z 24011KT M05/M09 A3007 RMK A01 T10491085  RH  076%=      5-min Rain = 0
KBO1 131126Z 24012KT M05/M09 A3007 RMK A01 T10501086  RH  076%=      5-min Rain = 0
KBO1 131127Z 24011KT M05/M09 A3007 RMK A01 T10501086  RH  076%=      5-min Rain = 0
KBO1 131128Z 25011KT M05/M09 A3007 RMK A01 T10501086  RH  076%=      5-min Rain = 0
KBO1 131129Z 25012KT M05/M09 A3007 RMK A01 T10501087  RH  076%=      5-min Rain = 0
KBO1 131130Z 25012KT M05/M09 A3007 RMK A01 T10501087  RH  076%=      5-min Rain = 0
KBO1 131131Z 25012KT M05/M09 A3007 RMK A01 T10501087  RH  075%=      5-min Rain = 0
KBO1 131132Z 25012KT M05/M09 A3007 RMK A01 T10491086  RH  075%=      5-min Rain = 0
KBO1 131133Z 25014KT M05/M09 A3006 RMK A01 T10481087  RH  075%=      5-min Rain = 0
KBO1 131134Z 25015KT M05/M09 A3006 RMK A01 T10481087  RH  074%=      5-min Rain = 0
KBO1 131135Z 25014KT M05/M09 A3006 RMK A01 T10481088  RH  074%=      5-min Rain = 0
KBO1 131136Z 26014KT M05/M09 A3006 RMK A01 T10481088  RH  074%=      5-min Rain = 0
KBO1 131137Z 25014KT M05/M09 A3006 RMK A01 T10471088  RH  073%=      5-min Rain = 0
KBO1 131138Z 25014KT M05/M09 A3007 RMK A01 T10471088  RH  073%=      5-min Rain = 0
KBO1 131139Z 25014KT M05/M09 A3007 RMK A01 T10471088  RH  073%=      5-min Rain = 0
KBO1 131140Z 26013KT M05/M09 A3007 RMK A01 T10491090  RH  073%=      5-min Rain = 0
KBO1 131141Z 26013KT M05/M09 A3007 RMK A01 T10511090  RH  074%=      5-min Rain = 0
KBO1 131142Z 26013KT M05/M09 A3007 RMK A01 T10531091  RH  075%=      5-min Rain = 0
KBO1 131143Z 26014KT M06/M09 A3007 RMK A01 T10551091  RH  076%=      5-min Rain = 0
KBO1 131144Z 26014KT M06/M09 A3007 RMK A01 T10561091  RH  076%=      5-min Rain = 0
KBO1 131145Z 26014KT M06/M09 A3007 RMK A01 T10571092  RH  077%=      5-min Rain = 0
KBO1 131146Z 26013KT M06/M09 A3007 RMK A01 T10581091  RH  077%=      5-min Rain = 0
KBO1 131147Z 26012KT M06/M09 A3007 RMK A01 T10581091  RH  078%=      5-min Rain = 0
KBO1 131148Z 26012KT M06/M09 A3007 RMK A01 T10591091  RH  078%=      5-min Rain = 0
KBO1 131149Z 26012KT M06/M09 A3007 RMK A01 T10601092  RH  078%=      5-min Rain = 0
KBO1 131150Z 26012KT M06/M09 A3007 RMK A01 T10601092  RH  078%=      5-min Rain = 0
KBO1 131151Z 26012KT M06/M09 A3007 RMK A01 T10601092  RH  078%=      5-min Rain = 0
KBO1 131152Z 26012KT M06/M09 A3007 RMK A01 T10601092  RH  078%=      5-min Rain = 0
KBO1 131153Z 25012KT M06/M09 A3006 RMK A01 T10601092  RH  078%=      5-min Rain = 0
KBO1 131154Z 26012KT M06/M09 A3006 RMK A01 T10581092  RH  077%=      5-min Rain = 0
KBO1 131155Z 26011KT M06/M09 A3007 RMK A01 T10581091  RH  077%=      5-min Rain = 0
KBO1 131156Z 26010KT M06/M09 A3007 RMK A01 T10571091  RH  077%=      5-min Rain = 0
KBO1 131157Z 26010KT M06/M09 A3007 RMK A01 T10561092  RH  076%=      5-min Rain = 0
KBO1 131158Z 27009KT M06/M09 A3007 RMK A01 T10551092  RH  075%=      5-min Rain = 0
KBO1 131159Z 26010KT M06/M09 A3007 RMK A01 T10551092  RH  075%=      5-min Rain = 0
KBO1 131200Z 26009KT M06/M09 A3007 RMK A01 T10551093  RH  075%=      5-min Rain = 0
KBO1 131201Z 27010KT M06/M09 A3007 RMK A01 T10551093  RH  075%=      5-min Rain = 0
KBO1 131202Z 27009KT M06/M09 A3007 RMK A01 T10551093  RH  075%=      5-min Rain = 0
KBO1 131203Z 28007KT M06/M09 A3007 RMK A01 T10551093  RH  075%=      5-min Rain = 0
KBO1 131204Z 30008KT M06/M09 A3007 RMK A01 T10561093  RH  075%=      5-min Rain = 0
KBO1 131205Z 29009KT M06/M10 A3007 RMK A01 T10591096  RH  075%=      5-min Rain = 0
KBO1 131206Z 30009KT M06/M10 A3007 RMK A01 T10611097  RH  076%=      5-min Rain = 0
KBO1 131207Z 29009KT M06/M10 A3008 RMK A01 T10631097  RH  077%=      5-min Rain = 0
KBO1 131208Z 27009KT M06/M10 A3007 RMK A01 T10641097  RH  077%=      5-min Rain = 0
KBO1 131209Z 27010KT M06/M10 A3007 RMK A01 T10641096  RH  078%=      5-min Rain = 0
KBO1 131210Z 27010KT M06/M10 A3007 RMK A01 T10631095  RH  078%=      5-min Rain = 0
KBO1 131211Z 27010KT M06/M09 A3007 RMK A01 T10611093  RH  078%=      5-min Rain = 0
KBO1 131212Z 27009KT M06/M09 A3007 RMK A01 T10601092  RH  078%=      5-min Rain = 0
KBO1 131213Z 27009KT M06/M09 A3007 RMK A01 T10581091  RH  078%=      5-min Rain = 0
KBO1 131214Z 27009KT M06/M09 A3007 RMK A01 T10561090  RH  077%=      5-min Rain = 0
KBO1 131215Z 26011KT M06/M09 A3007 RMK A01 T10551090  RH  077%=      5-min Rain = 0
KBO1 131216Z 26010KT M06/M09 A3007 RMK A01 T10551090  RH  076%=      5-min Rain = 0
KBO1 131217Z 26010KT M06/M09 A3007 RMK A01 T10551091  RH  076%=      5-min Rain = 0
KBO1 131218Z 26011KT M06/M09 A3007 RMK A01 T10561091  RH  076%=      5-min Rain = 0
KBO1 131219Z 26010KT M06/M09 A3007 RMK A01 T10551092  RH  076%=      5-min Rain = 0
KBO1 131220Z 27009KT M06/M09 A3007 RMK A01 T10561092  RH  076%=      5-min Rain = 0
KBO1 131221Z 26010KT M06/M09 A3007 RMK A01 T10571093  RH  076%=      5-min Rain = 0
KBO1 131222Z 26010KT M06/M09 A3007 RMK A01 T10561093  RH  076%=      5-min Rain = 0
KBO1 131223Z 26010KT M06/M09 A3007 RMK A01 T10561092  RH  076%=      5-min Rain = 0
KBO1 131224Z 26010KT M06/M09 A3007 RMK A01 T10561092  RH  076%=      5-min Rain = 0
KBO1 131225Z 26010KT M06/M09 A3007 RMK A01 T10551091  RH  076%=      5-min Rain = 0
KBO1 131226Z 26011KT M06/M09 A3007 RMK A01 T10551091  RH  075%=      5-min Rain = 0
KBO1 131227Z 26010KT M06/M09 A3007 RMK A01 T10551091  RH  075%=      5-min Rain = 0
KBO1 131228Z 26010KT M06/M09 A3007 RMK A01 T10551092  RH  075%=      5-min Rain = 0
KBO1 131229Z 26010KT M06/M09 A3007 RMK A01 T10561092  RH  075%=      5-min Rain = 0
KBO1 131230Z 26010KT M06/M09 A3007 RMK A01 T10561092  RH  076%=      5-min Rain = 0
KBO1 131231Z 25010KT M06/M09 A3007 RMK A01 T10561092  RH  076%=      5-min Rain = 0
KBO1 131232Z 26009KT M06/M09 A3007 RMK A01 T10571092  RH  076%=      5-min Rain = 0
KBO1 131233Z 26009KT M06/M09 A3007 RMK A01 T10571092  RH  076%=      5-min Rain = 0
KBO1 131234Z 26009KT M06/M09 A3007 RMK A01 T10571093  RH  076%=      5-min Rain = 0
KBO1 131235Z 26009KT M06/M09 A3007 RMK A01 T10571093  RH  076%=      5-min Rain = 0
KBO1 131236Z 26009KT M06/M09 A3007 RMK A01 T10581093  RH  076%=      5-min Rain = 0
KBO1 131237Z 26009KT M06/M09 A3007 RMK A01 T10591094  RH  076%=      5-min Rain = 0
KBO1 131238Z 26009KT M06/M09 A3006 RMK A01 T10601094  RH  076%=      5-min Rain = 0
KBO1 131239Z 26009KT M06/M09 A3006 RMK A01 T10601094  RH  077%=      5-min Rain = 0
KBO1 131240Z 26010KT M06/M09 A3006 RMK A01 T10611094  RH  077%=      5-min Rain = 0
KBO1 131241Z 26010KT M06/M09 A3006 RMK A01 T10621094  RH  078%=      5-min Rain = 0
KBO1 131242Z 26009KT M06/M10 A3006 RMK A01 T10631095  RH  078%=      5-min Rain = 0
KBO1 131243Z 27009KT M06/M10 A3006 RMK A01 T10631095  RH  078%=      5-min Rain = 0
KBO1 131244Z 27009KT M06/M10 A3006 RMK A01 T10641095  RH  079%=      5-min Rain = 0
KBO1 131245Z 27008KT M06/M10 A3006 RMK A01 T10641096  RH  078%=      5-min Rain = 0
KBO1 131246Z 27008KT M07/M10 A3006 RMK A01 T10651096  RH  078%=      5-min Rain = 0
KBO1 131247Z 27009KT M07/M10 A3006 RMK A01 T10661097  RH  079%=      5-min Rain = 0
KBO1 131248Z 26009KT M07/M10 A3006 RMK A01 T10671097  RH  079%=      5-min Rain = 0
KBO1 131249Z 27009KT M07/M10 A3006 RMK A01 T10671097  RH  079%=      5-min Rain = 0
KBO1 131250Z 27009KT M07/M10 A3006 RMK A01 T10681097  RH  080%=      5-min Rain = 0
KBO1 131251Z 27008KT M07/M10 A3006 RMK A01 T10681097  RH  080%=      5-min Rain = 0
KBO1 131252Z 27008KT M07/M10 A3006 RMK A01 T10681097  RH  080%=      5-min Rain = 0
KBO1 131253Z 27008KT M07/M10 A3006 RMK A01 T10681096  RH  081%=      5-min Rain = 0
KBO1 131254Z 28009KT M07/M10 A3006 RMK A01 T10691097  RH  081%=      5-min Rain = 0
KBO1 131255Z 28009KT M07/M10 A3006 RMK A01 T10691096  RH  081%=      5-min Rain = 0
KBO1 131256Z 28009KT M07/M10 A3006 RMK A01 T10691096  RH  081%=      5-min Rain = 0
KBO1 131257Z 28009KT M07/M10 A3006 RMK A01 T10681095  RH  081%=      5-min Rain = 0
KBO1 131258Z 28009KT M07/M09 A3006 RMK A01 T10661093  RH  081%=      5-min Rain = 0
KBO1 131259Z 28009KT M06/M09 A3006 RMK A01 T10641091  RH  081%=      5-min Rain = 0
KBO1 131300Z 27008KT M06/M09 A3006 RMK A01 T10631091  RH  081%=      5-min Rain = 0
KBO1 131301Z 27008KT M06/M09 A3006 RMK A01 T10631092  RH  080%=      5-min Rain = 0
KBO1 131302Z 27009KT M06/M09 A3006 RMK A01 T10631092  RH  080%=      5-min Rain = 0
KBO1 131303Z 27009KT M06/M09 A3006 RMK A01 T10631093  RH  079%=      5-min Rain = 0
KBO1 131304Z 27009KT M06/M09 A3006 RMK A01 T10641093  RH  080%=      5-min Rain = 0
KBO1 131305Z 27009KT M06/M09 A3006 RMK A01 T10641093  RH  080%=      5-min Rain = 0
KBO1 131306Z 27009KT M06/M09 A3006 RMK A01 T10641093  RH  080%=      5-min Rain = 0
KBO1 131307Z 27009KT M06/M09 A3006 RMK A01 T10641093  RH  080%=      5-min Rain = 0
KBO1 131308Z 28009KT M06/M09 A3005 RMK A01 T10641093  RH  080%=      5-min Rain = 0
KBO1 131309Z 28010KT M06/M09 A3005 RMK A01 T10631092  RH  080%=      5-min Rain = 0
KBO1 131310Z 28011KT M06/M09 A3006 RMK A01 T10621092  RH  080%=      5-min Rain = 0
KBO1 131311Z 28011KT M06/M09 A3006 RMK A01 T10611091  RH  079%=      5-min Rain = 0
KBO1 131312Z 28010KT M06/M09 A3006 RMK A01 T10601090  RH  079%=      5-min Rain = 0
KBO1 131313Z 28010KT M06/M09 A3006 RMK A01 T10581089  RH  079%=      5-min Rain = 0
KBO1 131314Z 27009KT M06/M09 A3006 RMK A01 T10571089  RH  078%=      5-min Rain = 0
KBO1 131315Z 27009KT M06/M09 A3006 RMK A01 T10571089  RH  078%=      5-min Rain = 0
KBO1 131316Z 26010KT M06/M09 A3006 RMK A01 T10571089  RH  078%=      5-min Rain = 0
KBO1 131317Z 25010KT M06/M09 A3006 RMK A01 T10561089  RH  078%=      5-min Rain = 0
KBO1 131318Z 26011KT M06/M09 A3006 RMK A01 T10581090  RH  078%=      5-min Rain = 0
KBO1 131319Z 27011KT M06/M09 A3006 RMK A01 T10591092  RH  078%=      5-min Rain = 0
KBO1 131320Z 27011KT M06/M09 A3006 RMK A01 T10591091  RH  078%=      5-min Rain = 0
KBO1 131321Z 25012KT M06/M09 A3006 RMK A01 T10571090  RH  078%=      5-min Rain = 0
KBO1 131322Z 26011KT M06/M09 A3006 RMK A01 T10561090  RH  077%=      5-min Rain = 0
KBO1 131323Z 25010KT M06/M09 A3006 RMK A01 T10561090  RH  077%=      5-min Rain = 0
KBO1 131324Z 25011KT M06/M09 A3006 RMK A01 T10561090  RH  077%=      5-min Rain = 0
KBO1 131325Z 25012KT M06/M09 A3006 RMK A01 T10581091  RH  077%=      5-min Rain = 0
KBO1 131326Z 25012KT M06/M09 A3006 RMK A01 T10591092  RH  077%=      5-min Rain = 0
KBO1 131327Z 24012KT M06/M09 A3005 RMK A01 T10591092  RH  077%=      5-min Rain = 0
KBO1 131328Z 24012KT M06/M09 A3005 RMK A01 T10591092  RH  078%=      5-min Rain = 0
KBO1 131329Z 24012KT M06/M09 A3005 RMK A01 T10581091  RH  077%=      5-min Rain = 0
KBO1 131330Z 24012KT M06/M09 A3005 RMK A01 T10571091  RH  077%=      5-min Rain = 0
KBO1 131331Z 24012KT M06/M09 A3005 RMK A01 T10561091  RH  077%=      5-min Rain = 0
KBO1 131332Z 24012KT M06/M09 A3005 RMK A01 T10561091  RH  076%=      5-min Rain = 0
KBO1 131333Z 24012KT M06/M09 A3005 RMK A01 T10551090  RH  076%=      5-min Rain = 0
KBO1 131334Z 24012KT M06/M09 A3005 RMK A01 T10551090  RH  076%=      5-min Rain = 0
KBO1 131335Z 24012KT M06/M09 A3005 RMK A01 T10551091  RH  076%=      5-min Rain = 0
KBO1 131336Z 24012KT M06/M09 A3005 RMK A01 T10561091  RH  076%=      5-min Rain = 0
KBO1 131337Z 24012KT M06/M09 A3005 RMK A01 T10561091  RH  076%=      5-min Rain = 0
KBO1 131338Z 24012KT M06/M09 A3005 RMK A01 T10551091  RH  076%=      5-min Rain = 0
KBO1 131339Z 24012KT M05/M09 A3005 RMK A01 T10541090  RH  076%=      5-min Rain = 0
KBO1 131340Z 24012KT M05/M09 A3004 RMK A01 T10541090  RH  076%=      5-min Rain = 0
KBO1 131341Z 24012KT M05/M09 A3004 RMK A01 T10531089  RH  076%=      5-min Rain = 0
KBO1 131342Z 24012KT M05/M09 A3004 RMK A01 T10521089  RH  076%=      5-min Rain = 0
KBO1 131343Z 24011KT M05/M09 A3004 RMK A01 T10521089  RH  075%=      5-min Rain = 0
KBO1 131344Z 24012KT M05/M09 A3004 RMK A01 T10511089  RH  075%=      5-min Rain = 0
KBO1 131345Z 24012KT M05/M09 A3004 RMK A01 T10501088  RH  075%=      5-min Rain = 0
KBO1 131346Z 24011KT M05/M09 A3004 RMK A01 T10501089  RH  074%=      5-min Rain = 0
KBO1 131347Z 25011KT M05/M09 A3004 RMK A01 T10491089  RH  074%=      5-min Rain = 0
KBO1 131348Z 25011KT M05/M09 A3004 RMK A01 T10491089  RH  073%=      5-min Rain = 0
KBO1 131349Z 24011KT M05/M09 A3004 RMK A01 T10481088  RH  073%=      5-min Rain = 0
KBO1 131350Z 24011KT M05/M09 A3004 RMK A01 T10491089  RH  074%=      5-min Rain = 0
KBO1 131351Z 24011KT M05/M09 A3004 RMK A01 T10491089  RH  074%=      5-min Rain = 0
KBO1 131352Z 24011KT M05/M09 A3004 RMK A01 T10481088  RH  073%=      5-min Rain = 0
KBO1 131353Z 24011KT M05/M09 A3004 RMK A01 T10481088  RH  073%=      5-min Rain = 0
KBO1 131354Z 24011KT M05/M09 A3004 RMK A01 T10471088  RH  073%=      5-min Rain = 0
KBO1 131355Z 24011KT M05/M09 A3004 RMK A01 T10481088  RH  073%=      5-min Rain = 0
KBO1 131356Z 24012KT M05/M09 A3004 RMK A01 T10471088  RH  073%=      5-min Rain = 0
KBO1 131357Z 24012KT M05/M09 A3004 RMK A01 T10481088  RH  073%=      5-min Rain = 0
KBO1 131358Z 24012KT M05/M09 A3004 RMK A01 T10481088  RH  073%=      5-min Rain = 0
KBO1 131359Z 24012KT M05/M09 A3004 RMK A01 T10481088  RH  073%=      5-min Rain = 0
KBO1 131400Z 24012KT M05/M09 A3004 RMK A01 T10471088  RH  073%=      5-min Rain = 0
KBO1 131401Z 24012KT M05/M09 A3004 RMK A01 T10461087  RH  073%=      5-min Rain = 0
KBO1 131402Z 24012KT M05/M09 A3004 RMK A01 T10451087  RH  073%=      5-min Rain = 0
KBO1 131403Z 24012KT M05/M09 A3004 RMK A01 T10451087  RH  072%=      5-min Rain = 0
KBO1 131404Z 24012KT M04/M09 A3004 RMK A01 T10441087  RH  072%=      5-min Rain = 0
KBO1 131405Z 24012KT M04/M09 A3004 RMK A01 T10431088  RH  071%=      5-min Rain = 0
KBO1 131406Z 24012KT M04/M09 A3004 RMK A01 T10431087  RH  071%=      5-min Rain = 0
KBO1 131407Z 24011KT M04/M09 A3004 RMK A01 T10421088  RH  071%=      5-min Rain = 0
KBO1 131408Z 25012KT M04/M09 A3004 RMK A01 T10411088  RH  070%=      5-min Rain = 0
KBO1 131409Z 25012KT M04/M09 A3004 RMK A01 T10411088  RH  070%=      5-min Rain = 0
KBO1 131410Z 24012KT M04/M09 A3004 RMK A01 T10411088  RH  070%=      5-min Rain = 0
KBO1 131411Z 25011KT M04/M09 A3004 RMK A01 T10401088  RH  069%=      5-min Rain = 0
KBO1 131412Z 25011KT M04/M09 A3004 RMK A01 T10391087  RH  069%=      5-min Rain = 0
KBO1 131413Z 25010KT M04/M09 A3004 RMK A01 T10391087  RH  069%=      5-min Rain = 0
KBO1 131414Z 25010KT M04/M09 A3004 RMK A01 T10381086  RH  069%=      5-min Rain = 0
KBO1 131415Z 25010KT M04/M09 A3005 RMK A01 T10381086  RH  069%=      5-min Rain = 0
KBO1 131416Z 25009KT M04/M09 A3005 RMK A01 T10371086  RH  069%=      5-min Rain = 0
KBO1 131417Z 25009KT M04/M09 A3005 RMK A01 T10371085  RH  069%=      5-min Rain = 0
KBO1 131418Z 26009KT M04/M09 A3004 RMK A01 T10371085  RH  069%=      5-min Rain = 0
KBO1 131419Z 26009KT M04/M09 A3005 RMK A01 T10361085  RH  069%=      5-min Rain = 0
KBO1 131420Z 26009KT M04/M08 A3005 RMK A01 T10351084  RH  069%=      5-min Rain = 0
KBO1 131421Z 27010KT M03/M09 A3005 RMK A01 T10331085  RH  068%=      5-min Rain = 0
KBO1 131422Z 27010KT M03/M08 A3005 RMK A01 T10311084  RH  067%=      5-min Rain = 0
KBO1 131423Z 27010KT M03/M08 A3005 RMK A01 T10291084  RH  066%=      5-min Rain = 0
KBO1 131424Z 27011KT M03/M08 A3005 RMK A01 T10281084  RH  065%=      5-min Rain = 0
KBO1 131425Z 27010KT M03/M08 A3005 RMK A01 T10261083  RH  065%=      5-min Rain = 0
KBO1 131426Z 27010KT M03/M08 A3005 RMK A01 T10251083  RH  064%=      5-min Rain = 0
KBO1 131427Z 27011KT M03/M08 A3005 RMK A01 T10251084  RH  064%=      5-min Rain = 0
KBO1 131428Z 27011KT M02/M08 A3005 RMK A01 T10241084  RH  064%=      5-min Rain = 0
KBO1 131429Z 28011KT M02/M08 A3005 RMK A01 T10241083  RH  064%=      5-min Rain = 0
KBO1 131430Z 27010KT M03/M08 A3005 RMK A01 T10251084  RH  064%=      5-min Rain = 0
KBO1 131431Z 27011KT M03/M08 A3005 RMK A01 T10251084  RH  064%=      5-min Rain = 0
KBO1 131432Z 27010KT M02/M08 A3005 RMK A01 T10241084  RH  063%=      5-min Rain = 0
KBO1 131433Z 27010KT M02/M08 A3005 RMK A01 T10231084  RH  063%=      5-min Rain = 0
KBO1 131434Z 27011KT M02/M08 A3005 RMK A01 T10231084  RH  063%=      5-min Rain = 0
KBO1 131435Z 27011KT M02/M08 A3005 RMK A01 T10211084  RH  062%=      5-min Rain = 0
KBO1 131436Z 27011KT M02/M08 A3005 RMK A01 T10201083  RH  062%=      5-min Rain = 0
KBO1 131437Z 27011KT M02/M08 A3005 RMK A01 T10201083  RH  062%=      5-min Rain = 0
KBO1 131438Z 27010KT M02/M08 A3005 RMK A01 T10181082  RH  061%=      5-min Rain = 0
KBO1 131439Z 28010KT M02/M08 A3005 RMK A01 T10161081  RH  061%=      5-min Rain = 0
KBO1 131440Z 28011KT M01/M08 A3005 RMK A01 T10141081  RH  060%=      5-min Rain = 0
KBO1 131441Z 28011KT M01/M08 A3005 RMK A01 T10131081  RH  060%=      5-min Rain = 0
KBO1 131442Z 28011KT M01/M08 A3005 RMK A01 T10121080  RH  060%=      5-min Rain = 0
KBO1 131443Z 29012KT M01/M08 A3006 RMK A01 T10121080  RH  060%=      5-min Rain = 0
KBO1 131444Z 28012KT M01/M08 A3006 RMK A01 T10121080  RH  060%=      5-min Rain = 0
KBO1 131445Z 29011KT M01/M08 A3006 RMK A01 T10121080  RH  060%=      5-min Rain = 0
KBO1 131446Z 28011KT M01/M08 A3006 RMK A01 T10121080  RH  060%=      5-min Rain = 0
KBO1 131447Z 28012KT M01/M08 A3005 RMK A01 T10131079  RH  061%=      5-min Rain = 0
KBO1 131448Z 28011KT M01/M08 A3005 RMK A01 T10141079  RH  061%=      5-min Rain = 0
KBO1 131449Z 29011KT M01/M08 A3005 RMK A01 T10141079  RH  061%=      5-min Rain = 0
KBO1 131450Z 29011KT M01/M08 A3005 RMK A01 T10131079  RH  061%=      5-min Rain = 0
KBO1 131451Z 29011KT M01/M08 A3005 RMK A01 T10131079  RH  061%=      5-min Rain = 0
KBO1 131452Z 29010KT M01/M08 A3005 RMK A01 T10131079  RH  061%=      5-min Rain = 0
KBO1 131453Z 29010KT M01/M08 A3006 RMK A01 T10131077  RH  062%=      5-min Rain = 0
KBO1 131454Z 29010KT M01/M08 A3005 RMK A01 T10131076  RH  062%=      5-min Rain = 0
KBO1 131455Z 29010KT M01/M08 A3005 RMK A01 T10131077  RH  062%=      5-min Rain = 0
KBO1 131456Z 29010KT M01/M08 A3005 RMK A01 T10121077  RH  062%=      5-min Rain = 0
KBO1 131457Z 30010KT M01/M08 A3006 RMK A01 T10121076  RH  062%=      5-min Rain = 0
KBO1 131458Z 30011KT M01/M08 A3006 RMK A01 T10111076  RH  061%=      5-min Rain = 0
KBO1 131459Z 30011KT M01/M08 A3006 RMK A01 T10111076  RH  061%=      5-min Rain = 0
KBO1 131500Z 29010KT M01/M08 A3006 RMK A01 T10101076  RH  061%=      5-min Rain = 0
KBO1 131501Z 30010KT M01/M08 A3006 RMK A01 T10101075  RH  061%=      5-min Rain = 0
KBO1 131502Z 30009KT M01/M08 A3006 RMK A01 T10101075  RH  061%=      5-min Rain = 0
KBO1 131503Z 29009KT M01/M08 A3006 RMK A01 T10101075  RH  061%=      5-min Rain = 0
KBO1 131504Z 29009KT M01/M07 A3006 RMK A01 T10101074  RH  062%=      5-min Rain = 0
KBO1 131505Z 29009KT M01/M07 A3006 RMK A01 T10101073  RH  062%=      5-min Rain = 0
KBO1 131506Z 29009KT M01/M07 A3006 RMK A01 T10101073  RH  063%=      5-min Rain = 0
KBO1 131507Z 29009KT M01/M07 A3006 RMK A01 T10101073  RH  062%=      5-min Rain = 0
KBO1 131508Z 29009KT M01/M07 A3006 RMK A01 T10101073  RH  062%=      5-min Rain = 0
KBO1 131509Z 29009KT M01/M07 A3006 RMK A01 T10101074  RH  062%=      5-min Rain = 0
KBO1 131510Z 28009KT M01/M07 A3006 RMK A01 T10101073  RH  062%=      5-min Rain = 0
KBO1 131511Z 28008KT M01/M07 A3006 RMK A01 T10101072  RH  062%=      5-min Rain = 0
KBO1 131512Z 27007KT M01/M07 A3006 RMK A01 T10101072  RH  063%=      5-min Rain = 0
KBO1 131513Z 28008KT M01/M07 A3006 RMK A01 T10111072  RH  063%=      5-min Rain = 0
KBO1 131514Z 27008KT M01/M07 A3006 RMK A01 T10111072  RH  063%=      5-min Rain = 0
KBO1 131515Z 27008KT M01/M07 A3005 RMK A01 T10111071  RH  064%=      5-min Rain = 0
KBO1 131516Z 27008KT M01/M07 A3005 RMK A01 T10121071  RH  064%=      5-min Rain = 0
KBO1 131517Z 27008KT M01/M07 A3005 RMK A01 T10121071  RH  064%=      5-min Rain = 0
KBO1 131518Z 28008KT M01/M07 A3005 RMK A01 T10121072  RH  064%=      5-min Rain = 0
KBO1 131519Z 27008KT M01/M07 A3005 RMK A01 T10111072  RH  063%=      5-min Rain = 0
KBO1 131520Z 26008KT M01/M07 A3005 RMK A01 T10111071  RH  063%=      5-min Rain = 0
KBO1 131521Z 26008KT M01/M07 A3005 RMK A01 T10111070  RH  064%=      5-min Rain = 0
KBO1 131522Z 27008KT M01/M07 A3005 RMK A01 T10121069  RH  065%=      5-min Rain = 0
KBO1 131523Z 27008KT M01/M07 A3005 RMK A01 T10121068  RH  065%=      5-min Rain = 0
KBO1 131524Z 27008KT M01/M07 A3005 RMK A01 T10101067  RH  065%=      5-min Rain = 0
KBO1 131525Z 26008KT M01/M07 A3005 RMK A01 T10081066  RH  065%=      5-min Rain = 0
KBO1 131526Z 26007KT M01/M07 A3005 RMK A01 T10071066  RH  064%=      5-min Rain = 0
KBO1 131527Z 26008KT M01/M07 A3005 RMK A01 T10071066  RH  064%=      5-min Rain = 0
KBO1 131528Z 25008KT M01/M07 A3005 RMK A01 T10081066  RH  065%=      5-min Rain = 0
KBO1 131529Z 25009KT M01/M07 A3005 RMK A01 T10101065  RH  066%=      5-min Rain = 0
KBO1 131530Z 26009KT M01/M07 A3005 RMK A01 T10111065  RH  066%=      5-min Rain = 0
KBO1 131531Z 26009KT M01/M07 A3005 RMK A01 T10121067  RH  066%=      5-min Rain = 0
KBO1 131532Z 26008KT M01/M07 A3005 RMK A01 T10121068  RH  066%=      5-min Rain = 0
KBO1 131533Z 25008KT M01/M07 A3005 RMK A01 T10131069  RH  066%=      5-min Rain = 0
KBO1 131534Z 25009KT M01/M07 A3005 RMK A01 T10141067  RH  067%=      5-min Rain = 0
KBO1 131535Z 26010KT M02/M07 A3005 RMK A01 T10151069  RH  067%=      5-min Rain = 0
KBO1 131536Z 26010KT M02/M07 A3005 RMK A01 T10171070  RH  067%=      5-min Rain = 0
KBO1 131537Z 26009KT M02/M07 A3005 RMK A01 T10181070  RH  068%=      5-min Rain = 0
KBO1 131538Z 26010KT M02/M07 A3005 RMK A01 T10191071  RH  068%=      5-min Rain = 0
KBO1 131539Z 26010KT M02/M07 A3005 RMK A01 T10191071  RH  068%=      5-min Rain = 0
KBO1 131540Z 26009KT M02/M07 A3005 RMK A01 T10191070  RH  068%=      5-min Rain = 0
KBO1 131541Z 26010KT M02/M07 A3005 RMK A01 T10191070  RH  068%=      5-min Rain = 0
KBO1 131542Z 27009KT M02/M07 A3006 RMK A01 T10191070  RH  069%=      5-min Rain = 0
KBO1 131543Z 26010KT M02/M07 A3006 RMK A01 T10191069  RH  069%=      5-min Rain = 0
KBO1 131544Z 26009KT M02/M07 A3006 RMK A01 T10181068  RH  069%=      5-min Rain = 0
KBO1 131545Z 27009KT M02/M07 A3006 RMK A01 T10171068  RH  068%=      5-min Rain = 0
KBO1 131546Z 26010KT M01/M07 A3006 RMK A01 T10141068  RH  067%=      5-min Rain = 0
KBO1 131547Z 26009KT M01/M07 A3006 RMK A01 T10121066  RH  067%=      5-min Rain = 0
KBO1 131548Z 26009KT M01/M06 A3006 RMK A01 T10091063  RH  067%=      5-min Rain = 0
KBO1 131549Z 27009KT M01/M06 A3006 RMK A01 T10071064  RH  065%=      5-min Rain = 0
KBO1 131550Z 27008KT M01/M06 A3006 RMK A01 T10051064  RH  065%=      5-min Rain = 0
KBO1 131551Z 28008KT M00/M06 A3006 RMK A01 T10031060  RH  065%=      5-min Rain = 0
KBO1 131552Z 28009KT M00/M06 A3006 RMK A01 T10011061  RH  064%=      5-min Rain = 0
KBO1 131553Z 28009KT 00/M06 A3006 RMK A01 T00011058  RH  064%=      5-min Rain = 0
KBO1 131554Z 28009KT 00/M06 A3006 RMK A01 T00031059  RH  063%=      5-min Rain = 0
KBO1 131555Z 28008KT 01/M06 A3006 RMK A01 T00051057  RH  063%=      5-min Rain = 0
KBO1 131556Z 28009KT 01/M06 A3006 RMK A01 T00071056  RH  063%=      5-min Rain = 0
KBO1 131557Z 27008KT 01/M06 A3006 RMK A01 T00091055  RH  062%=      5-min Rain = 0
KBO1 131558Z 27008KT 01/M06 A3006 RMK A01 T00111056  RH  061%=      5-min Rain = 0
KBO1 131559Z 27008KT 01/M06 A3006 RMK A01 T00131057  RH  059%=      5-min Rain = 0
KBO1 131600Z 27007KT 02/M06 A3006 RMK A01 T00161057  RH  058%=      5-min Rain = 0
KBO1 131601Z 26008KT 02/M05 A3006 RMK A01 T00171054  RH  059%=      5-min Rain = 0
KBO1 131602Z 26009KT 02/M05 A3006 RMK A01 T00191052  RH  059%=      5-min Rain = 0
KBO1 131603Z 25009KT 02/M05 A3006 RMK A01 T00211051  RH  059%=      5-min Rain = 0
KBO1 131604Z 25009KT 02/M05 A3006 RMK A01 T00231046  RH  060%=      5-min Rain = 0
KBO1 131605Z 25009KT 03/M05 A3006 RMK A01 T00251047  RH  059%=      5-min Rain = 0
KBO1 131606Z 25010KT 03/M05 A3006 RMK A01 T00271048  RH  058%=      5-min Rain = 0
KBO1 131607Z 25010KT 03/M05 A3006 RMK A01 T00281051  RH  056%=      5-min Rain = 0
KBO1 131608Z 26009KT 03/M05 A3006 RMK A01 T00281052  RH  056%=      5-min Rain = 0
KBO1 131609Z 26010KT 03/M05 A3006 RMK A01 T00291048  RH  057%=      5-min Rain = 0
KBO1 131610Z 26009KT 03/M05 A3006 RMK A01 T00301047  RH  057%=      5-min Rain = 0
KBO1 131611Z 26010KT 03/M05 A3006 RMK A01 T00301047  RH  057%=      5-min Rain = 0
KBO1 131612Z 26009KT 03/M05 A3006 RMK A01 T00311046  RH  057%=      5-min Rain = 0
KBO1 131613Z 26008KT 03/M05 A3006 RMK A01 T00321045  RH  057%=      5-min Rain = 0
KBO1 131614Z 27008KT 03/M04 A3006 RMK A01 T00341044  RH  056%=      5-min Rain = 0
KBO1 131615Z 27008KT 04/M04 A3006 RMK A01 T00371041  RH  056%=      5-min Rain = 0
KBO1 131616Z 27008KT 04/M04 A3006 RMK A01 T00391044  RH  054%=      5-min Rain = 0
KBO1 131617Z 27008KT 04/M04 A3006 RMK A01 T00421043  RH  054%=      5-min Rain = 0
KBO1 131618Z 28008KT 04/M05 A3006 RMK A01 T00441045  RH  052%=      5-min Rain = 0
KBO1 131619Z 28007KT 04/M04 A3006 RMK A01 T00441044  RH  052%=      5-min Rain = 0
KBO1 131620Z 27006KT 05/M04 A3006 RMK A01 T00451043  RH  053%=      5-min Rain = 0
KBO1 131621Z 27007KT 05/M04 A3006 RMK A01 T00481038  RH  054%=      5-min Rain = 0
KBO1 131622Z 27007KT 05/M04 A3006 RMK A01 T00511040  RH  052%=      5-min Rain = 0
KBO1 131623Z 27007KT 05/M04 A3006 RMK A01 T00511038  RH  053%=      5-min Rain = 0
KBO1 131624Z 28007KT 05/M04 A3006 RMK A01 T00511037  RH  053%=      5-min Rain = 0
KBO1 131625Z 27006KT 05/M04 A3006 RMK A01 T00521037  RH  052%=      5-min Rain = 0
KBO1 131626Z 28006KT 06/M03 A3006 RMK A01 T00551032  RH  054%=      5-min Rain = 0
KBO1 131627Z 28007KT 06/M03 A3006 RMK A01 T00551033  RH  053%=      5-min Rain = 0
KBO1 131628Z 27006KT 06/M03 A3006 RMK A01 T00561034  RH  052%=      5-min Rain = 0
KBO1 131629Z 27006KT 06/M03 A3006 RMK A01 T00561028  RH  055%=      5-min Rain = 0
KBO1 131630Z 28007KT 06/M03 A3006 RMK A01 T00561030  RH  054%=      5-min Rain = 0
KBO1 131631Z 28007KT 06/M03 A3006 RMK A01 T00581033  RH  052%=      5-min Rain = 0
KBO1 131632Z 27007KT 06/M03 A3006 RMK A01 T00601034  RH  051%=      5-min Rain = 0
KBO1 131633Z 28006KT 06/M03 A3006 RMK A01 T00621033  RH  051%=      5-min Rain = 0
KBO1 131634Z 28008KT 06/M03 A3006 RMK A01 T00641033  RH  050%=      5-min Rain = 0
KBO1 131635Z 28007KT 07/M04 A3006 RMK A01 T00651036  RH  049%=      5-min Rain = 0
KBO1 131636Z 28008KT 07/M03 A3006 RMK A01 T00661034  RH  049%=      5-min Rain = 0
KBO1 131637Z 28007KT 07/M03 A3006 RMK A01 T00661033  RH  049%=      5-min Rain = 0
KBO1 131638Z 29008KT 07/M03 A3006 RMK A01 T00661034  RH  049%=      5-min Rain = 0
KBO1 131639Z 29008KT 07/M04 A3006 RMK A01 T00671037  RH  047%=      5-min Rain = 0
KBO1 131640Z 29008KT 07/M04 A3006 RMK A01 T00691036  RH  047%=      5-min Rain = 0
KBO1 131641Z 28008KT 07/M03 A3006 RMK A01 T00721033  RH  047%=      5-min Rain = 0
KBO1 131642Z 28008KT 08/M04 A3006 RMK A01 T00751035  RH  046%=      5-min Rain = 0
KBO1 131643Z 28009KT 08/M03 A3006 RMK A01 T00761034  RH  046%=      5-min Rain = 0
KBO1 131644Z 28008KT 08/M04 A3006 RMK A01 T00771035  RH  045%=      5-min Rain = 0
KBO1 131645Z 28008KT 08/M03 A3006 RMK A01 T00781034  RH  045%=      5-min Rain = 0
KBO1 131646Z 28008KT 08/M03 A3006 RMK A01 T00801030  RH  046%=      5-min Rain = 0
KBO1 131647Z 28008KT 08/M04 A3006 RMK A01 T00811036  RH  044%=      5-min Rain = 0
KBO1 131648Z 28007KT 08/M03 A3006 RMK A01 T00811034  RH  044%=      5-min Rain = 0
KBO1 131649Z 28008KT 08/M03 A3006 RMK A01 T00811032  RH  045%=      5-min Rain = 0
KBO1 131650Z 28008KT 08/M03 A3006 RMK A01 T00831032  RH  044%=      5-min Rain = 0
KBO1 131651Z 29007KT 08/M03 A3006 RMK A01 T00841034  RH  043%=      5-min Rain = 0
KBO1 131652Z 28007KT 09/M03 A3006 RMK A01 T00861030  RH  044%=      5-min Rain = 0
KBO1 131653Z 28007KT 09/M03 A3006 RMK A01 T00881032  RH  043%=      5-min Rain = 0
KBO1 131654Z 29008KT 09/M03 A3006 RMK A01 T00891032  RH  043%=      5-min Rain = 0
KBO1 131655Z 29009KT 09/M04 A3006 RMK A01 T00911037  RH  040%=      5-min Rain = 0
KBO1 131656Z 30010KT 09/M04 A3006 RMK A01 T00921043  RH  038%=      5-min Rain = 0
KBO1 131657Z 30010KT 09/M04 A3006 RMK A01 T00941044  RH  037%=      5-min Rain = 0
KBO1 131658Z 30009KT 10/M04 A3006 RMK A01 T00951042  RH  038%=      5-min Rain = 0
KBO1 131659Z 30009KT 10/M04 A3005 RMK A01 T00971039  RH  038%=      5-min Rain = 0
KBO1 131700Z 30010KT 10/M04 A3005 RMK A01 T01001039  RH  037%=      5-min Rain = 0
KBO1 131701Z 30009KT 10/M04 A3005 RMK A01 T01001040  RH  037%=      5-min Rain = 0
KBO1 131702Z 30008KT 10/M04 A3005 RMK A01 T01011036  RH  038%=      5-min Rain = 0
KBO1 131703Z 31009KT 10/M04 A3005 RMK A01 T01011041  RH  036%=      5-min Rain = 0
KBO1 131704Z 30009KT 10/M05 A3005 RMK A01 T01041050  RH  034%=      5-min Rain = 0
KBO1 131705Z 30009KT 11/M05 A3005 RMK A01 T01071052  RH  032%=      5-min Rain = 0
KBO1 131706Z 30008KT 11/M05 A3005 RMK A01 T01091054  RH  031%=      5-min Rain = 0
KBO1 131707Z 30008KT 11/M06 A3005 RMK A01 T01121060  RH  029%=      5-min Rain = 0
KBO1 131708Z 30008KT 11/M06 A3005 RMK A01 T01141062  RH  029%=      5-min Rain = 0
KBO1 131709Z 31010KT 12/M07 A3005 RMK A01 T01151072  RH  026%=      5-min Rain = 0
KBO1 131710Z 31010KT 12/M09 A3005 RMK A01 T01161085  RH  024%=      5-min Rain = 0
KBO1 131711Z 30011KT 12/M09 A3005 RMK A01 T01161088  RH  023%=      5-min Rain = 0
KBO1 131712Z 31010KT 12/M09 A3005 RMK A01 T01161090  RH  023%=      5-min Rain = 0
KBO1 131713Z 31010KT 12/M09 A3005 RMK A01 T01151091  RH  023%=      5-min Rain = 0
KBO1 131714Z 31009KT 12/M09 A3005 RMK A01 T01161092  RH  022%=      5-min Rain = 0
KBO1 131715Z 31010KT 12/M09 A3005 RMK A01 T01171089  RH  023%=      5-min Rain = 0
KBO1 131716Z 30010KT 12/M09 A3005 RMK A01 T01181092  RH  022%=      5-min Rain = 0
KBO1 131717Z 31009KT 12/M09 A3005 RMK A01 T01181089  RH  023%=      5-min Rain = 0
KBO1 131718Z 30011KT 12/M10 A3005 RMK A01 T01191095  RH  021%=      5-min Rain = 0
KBO1 131719Z 31012KT 12/M10 A3005 RMK A01 T01191100  RH  021%=      5-min Rain = 0
KBO1 131720Z 30010KT 12/M10 A3005 RMK A01 T01181098  RH  021%=      5-min Rain = 0
KBO1 131721Z 31011KT 12/M09 A3005 RMK A01 T01201092  RH  022%=      5-min Rain = 0
KBO1 131722Z 30011KT 12/M10 A3004 RMK A01 T01221095  RH  021%=      5-min Rain = 0
KBO1 131723Z 30012KT 12/M10 A3004 RMK A01 T01231099  RH  020%=      5-min Rain = 0
KBO1 131724Z 30013KT 12/M10 A3004 RMK A01 T01231102  RH  020%=      5-min Rain = 0
KBO1 131725Z 30012KT 12/M10 A3004 RMK A01 T01231095  RH  021%=      5-min Rain = 0
KBO1 131726Z 31012KT 12/M10 A3004 RMK A01 T01241097  RH  020%=      5-min Rain = 0
KBO1 131727Z 30014KT 13/M10 A3004 RMK A01 T01251100  RH  020%=      5-min Rain = 0
KBO1 131728Z 31012KT 13/M10 A3004 RMK A01 T01251101  RH  020%=      5-min Rain = 0
KBO1 131729Z 30012KT 13/M10 A3004 RMK A01 T01251101  RH  020%=      5-min Rain = 0
KBO1 131730Z 31012KT 13/M10 A3004 RMK A01 T01251098  RH  020%=      5-min Rain = 0
KBO1 131731Z 30012KT 13/M10 A3004 RMK A01 T01251100  RH  020%=      5-min Rain = 0
KBO1 131732Z 30013KT 13/M10 A3004 RMK A01 T01251100  RH  020%=      5-min Rain = 0
KBO1 131733Z 30013KT 13/M10 A3004 RMK A01 T01251102  RH  020%=      5-min Rain = 0
KBO1 131734Z 30012KT 13/M10 A3004 RMK A01 T01251098  RH  020%=      5-min Rain = 0
KBO1 131735Z 30014KT 13/M10 A3004 RMK A01 T01251096  RH  020%=      5-min Rain = 0
KBO1 131736Z 30014KT 13/M10 A3004 RMK A01 T01251101  RH  020%=      5-min Rain = 0
KBO1 131737Z 30014KT 13/M10 A3004 RMK A01 T01251102  RH  020%=      5-min Rain = 0
KBO1 131738Z 30013KT 12/M10 A3004 RMK A01 T01241101  RH  020%=      5-min Rain = 0
KBO1 131739Z 30013KT 13/M10 A3004 RMK A01 T01251095  RH  020%=      5-min Rain = 0
KBO1 131740Z 30013KT 13/M10 A3004 RMK A01 T01271095  RH  020%=      5-min Rain = 0
KBO1 131741Z 29012KT 13/M10 A3004 RMK A01 T01291095  RH  020%=      5-min Rain = 0
KBO1 131742Z 29012KT 13/M09 A3004 RMK A01 T01301092  RH  020%=      5-min Rain = 0
KBO1 131743Z 30011KT 13/M09 A3004 RMK A01 T01311091  RH  020%=      5-min Rain = 0
KBO1 131744Z 30011KT 13/M09 A3004 RMK A01 T01321090  RH  020%=      5-min Rain = 0
KBO1 131745Z 31012KT 13/M10 A3004 RMK A01 T01341097  RH  019%=      5-min Rain = 0
KBO1 131746Z 31010KT 14/M10 A3003 RMK A01 T01351100  RH  019%=      5-min Rain = 0
KBO1 131747Z 31011KT 14/M10 A3003 RMK A01 T01361096  RH  019%=      5-min Rain = 0
KBO1 131748Z 30009KT 14/M10 A3003 RMK A01 T01371096  RH  019%=      5-min Rain = 0
KBO1 131749Z 30012KT 14/M10 A3003 RMK A01 T01391096  RH  019%=      5-min Rain = 0
KBO1 131750Z 30011KT 14/M10 A3003 RMK A01 T01401101  RH  018%=      5-min Rain = 0
KBO1 131751Z 30011KT 14/M10 A3003 RMK A01 T01401097  RH  018%=      5-min Rain = 0
KBO1 131752Z 30010KT 14/M10 A3003 RMK A01 T01411104  RH  017%=      5-min Rain = 0
KBO1 131753Z 29012KT 14/M10 A3003 RMK A01 T01421104  RH  017%=      5-min Rain = 0
KBO1 131754Z 29012KT 14/M10 A3003 RMK A01 T01431101  RH  017%=      5-min Rain = 0
KBO1 131755Z 30011KT 14/M10 A3003 RMK A01 T01431101  RH  017%=      5-min Rain = 0
KBO1 131756Z 29012KT 14/M10 A3003 RMK A01 T01431101  RH  017%=      5-min Rain = 0
KBO1 131757Z 29012KT 14/M11 A3003 RMK A01 T01421109  RH  016%=      5-min Rain = 0
KBO1 131758Z 29013KT 14/M11 A3003 RMK A01 T01411112  RH  016%=      5-min Rain = 0
KBO1 131759Z 30012KT 14/M11 A3003 RMK A01 T01411105  RH  017%=      5-min Rain = 0
KBO1 131800Z 30012KT 14/M10 A3003 RMK A01 T01431100  RH  018%=      5-min Rain = 0
KBO1 131801Z 30012KT 14/M10 A3003 RMK A01 T01441099  RH  018%=      5-min Rain = 0
KBO1 131802Z 29012KT 14/M10 A3002 RMK A01 T01441099  RH  018%=      5-min Rain = 0
KBO1 131803Z 30012KT 14/M10 A3002 RMK A01 T01441099  RH  018%=      5-min Rain = 0
KBO1 131804Z 30012KT 15/M10 A3002 RMK A01 T01451098  RH  018%=      5-min Rain = 0
KBO1 131805Z 30013KT 15/M10 A3002 RMK A01 T01461101  RH  017%=      5-min Rain = 0
KBO1 131806Z 29013KT 15/M10 A3002 RMK A01 T01461100  RH  017%=      5-min Rain = 0
KBO1 131807Z 30014KT 14/M10 A3002 RMK A01 T01441101  RH  017%=      5-min Rain = 0
KBO1 131808Z 30014KT 14/M10 A3002 RMK A01 T01421101  RH  018%=      5-min Rain = 0
KBO1 131809Z 30013KT 14/M10 A3002 RMK A01 T01401102  RH  018%=      5-min Rain = 0
KBO1 131810Z 30012KT 14/M10 A3002 RMK A01 T01381101  RH  018%=      5-min Rain = 0
KBO1 131811Z 31012KT 14/M09 A3002 RMK A01 T01371094  RH  019%=      5-min Rain = 0
KBO1 131812Z 31012KT 14/M09 A3002 RMK A01 T01381093  RH  019%=      5-min Rain = 0
KBO1 131813Z 30012KT 14/M10 A3002 RMK A01 T01371101  RH  018%=      5-min Rain = 0
KBO1 131814Z 30011KT 14/M10 A3002 RMK A01 T01371098  RH  019%=      5-min Rain = 0
KBO1 131815Z 30012KT 14/M10 A3001 RMK A01 T01371098  RH  019%=      5-min Rain = 0
KBO1 131816Z 30012KT 14/M10 A3001 RMK A01 T01351098  RH  019%=      5-min Rain = 0
KBO1 131817Z 30011KT 14/M10 A3001 RMK A01 T01351099  RH  019%=      5-min Rain = 0
KBO1 131818Z 30011KT 14/M10 A3001 RMK A01 T01351099  RH  019%=      5-min Rain = 0
KBO1 131819Z 30011KT 14/M10 A3001 RMK A01 T01361097  RH  019%=      5-min Rain = 0
KBO1 131820Z 30010KT 14/M10 A3001 RMK A01 T01371096  RH  019%=      5-min Rain = 0
KBO1 131821Z 30011KT 14/M09 A3001 RMK A01 T01381093  RH  019%=      5-min Rain = 0
KBO1 131822Z 29012KT 14/M10 A3001 RMK A01 T01391095  RH  019%=      5-min Rain = 0
KBO1 131823Z 30011KT 14/M10 A3001 RMK A01 T01401096  RH  019%=      5-min Rain = 0
KBO1 131824Z 30010KT 14/M09 A3001 RMK A01 T01401094  RH  019%=      5-min Rain = 0
KBO1 131825Z 30010KT 14/M09 A3001 RMK A01 T01421090  RH  019%=      5-min Rain = 0
KBO1 131826Z 30010KT 14/M09 A3001 RMK A01 T01431089  RH  019%=      5-min Rain = 0
KBO1 131827Z 31010KT 15/M09 A3001 RMK A01 T01451087  RH  019%=      5-min Rain = 0
KBO1 131828Z 31012KT 15/M09 A3001 RMK A01 T01461089  RH  019%=      5-min Rain = 0
KBO1 131829Z 30012KT 15/M09 A3001 RMK A01 T01461091  RH  019%=      5-min Rain = 0
KBO1 131830Z 30012KT 15/M09 A3001 RMK A01 T01451094  RH  018%=      5-min Rain = 0
KBO1 131831Z 29011KT 15/M09 A3001 RMK A01 T01451094  RH  018%=      5-min Rain = 0
KBO1 131832Z 29011KT 14/M09 A30 RMK A01 T01441092  RH  019%=      5-min Rain = 0
KBO1 131833Z 30011KT 14/M09 A30 RMK A01 T01441087  RH  019%=      5-min Rain = 0
KBO1 131834Z 30014KT 15/M09 A30 RMK A01 T01451090  RH  019%=      5-min Rain = 0
KBO1 131835Z 30013KT 15/M09 A30 RMK A01 T01451094  RH  018%=      5-min Rain = 0
KBO1 131836Z 30013KT 15/M09 A30 RMK A01 T01451091  RH  019%=      5-min Rain = 0
KBO1 131837Z 29012KT 14/M09 A30 RMK A01 T01441094  RH  018%=      5-min Rain = 0
KBO1 131838Z 30013KT 15/M09 A30 RMK A01 T01451090  RH  019%=      5-min Rain = 0
KBO1 131839Z 29013KT 15/M10 A30 RMK A01 T01451095  RH  018%=      5-min Rain = 0
KBO1 131840Z 29012KT 15/M10 A30 RMK A01 T01451095  RH  018%=      5-min Rain = 0
KBO1 131841Z 29010KT 15/M09 A30 RMK A01 T01451090  RH  019%=      5-min Rain = 0
KBO1 131842Z 30010KT 15/M09 A30 RMK A01 T01471086  RH  019%=      5-min Rain = 0
KBO1 131843Z 29011KT 15/M09 A2999 RMK A01 T01501088  RH  019%=      5-min Rain = 0
KBO1 131844Z 29012KT 15/M09 A2999 RMK A01 T01501091  RH  018%=      5-min Rain = 0
KBO1 131845Z 30011KT 15/M09 A2999 RMK A01 T01501093  RH  018%=      5-min Rain = 0
KBO1 131846Z 30013KT 15/M09 A2999 RMK A01 T01501092  RH  018%=      5-min Rain = 0
KBO1 131847Z 29013KT 15/M10 A2999 RMK A01 T01491100  RH  017%=      5-min Rain = 0
KBO1 131848Z 29013KT 15/M10 A2999 RMK A01 T01481103  RH  017%=      5-min Rain = 0
KBO1 131849Z 29012KT 15/M10 A2999 RMK A01 T01471099  RH  017%=      5-min Rain = 0
KBO1 131850Z 29013KT 15/M10 A2999 RMK A01 T01481097  RH  017%=      5-min Rain = 0
KBO1 131851Z 29012KT 15/M10 A2999 RMK A01 T01491097  RH  017%=      5-min Rain = 0
KBO1 131852Z 30013KT 15/M09 A2999 RMK A01 T01501094  RH  018%=      5-min Rain = 0
KBO1 131853Z 29013KT 15/M09 A2999 RMK A01 T01511092  RH  018%=      5-min Rain = 0
KBO1 131854Z 29011KT 15/M09 A2999 RMK A01 T01521089  RH  018%=      5-min Rain = 0
KBO1 131855Z 30012KT 15/M09 A2999 RMK A01 T01531085  RH  019%=      5-min Rain = 0
KBO1 131856Z 30012KT 15/M09 A2999 RMK A01 T01531087  RH  018%=      5-min Rain = 0
KBO1 131857Z 29011KT 15/M09 A2999 RMK A01 T01531087  RH  018%=      5-min Rain = 0
KBO1 131858Z 29011KT 15/M09 A2999 RMK A01 T01531087  RH  018%=      5-min Rain = 0
KBO1 131859Z 31010KT 15/M08 A2998 RMK A01 T01531082  RH  019%=      5-min Rain = 0
KBO1 131900Z 30011KT 16/M08 A2998 RMK A01 T01561083  RH  019%=      5-min Rain = 0
KBO1 131901Z 30010KT 16/M09 A2998 RMK A01 T01561086  RH  018%=      5-min Rain = 0
KBO1 131902Z 30010KT 16/M08 A2998 RMK A01 T01551083  RH  019%=      5-min Rain = 0
KBO1 131903Z 30011KT 16/M08 A2998 RMK A01 T01551083  RH  019%=      5-min Rain = 0
KBO1 131904Z 30011KT 16/M08 A2998 RMK A01 T01551080  RH  019%=      5-min Rain = 0
KBO1 131905Z 29009KT 16/M08 A2998 RMK A01 T01561079  RH  019%=      5-min Rain = 0
KBO1 131906Z 30011KT 16/M07 A2998 RMK A01 T01561074  RH  020%=      5-min Rain = 0
KBO1 131907Z 30011KT 16/M08 A2998 RMK A01 T01581076  RH  019%=      5-min Rain = 0
KBO1 131908Z 30010KT 16/M08 A2998 RMK A01 T01581076  RH  019%=      5-min Rain = 0
KBO1 131909Z 30008KT 16/M07 A2998 RMK A01 T01591071  RH  020%=      5-min Rain = 0
KBO1 131910Z 30010KT 16/M07 A2998 RMK A01 T01601072  RH  020%=      5-min Rain = 0
KBO1 131911Z 29010KT 16/M07 A2998 RMK A01 T01601072  RH  020%=      5-min Rain = 0
KBO1 131912Z 30011KT 16/M07 A2998 RMK A01 T01601072  RH  020%=      5-min Rain = 0
KBO1 131913Z 30011KT 16/M07 A2998 RMK A01 T01601072  RH  020%=      5-min Rain = 0
KBO1 131914Z 30012KT 16/M07 A2998 RMK A01 T01591074  RH  019%=      5-min Rain = 0
KBO1 131915Z 31010KT 16/M08 A2998 RMK A01 T01581075  RH  019%=      5-min Rain = 0
KBO1 131916Z 31012KT 16/M07 A2997 RMK A01 T01581070  RH  020%=      5-min Rain = 0
KBO1 131917Z 30011KT 16/M07 A2997 RMK A01 T01581073  RH  020%=      5-min Rain = 0
KBO1 131918Z 30012KT 16/M07 A2997 RMK A01 T01581072  RH  020%=      5-min Rain = 0
KBO1 131919Z 30012KT 16/M08 A2997 RMK A01 T01581075  RH  019%=      5-min Rain = 0
KBO1 131920Z 30012KT 16/M08 A2997 RMK A01 T01571075  RH  020%=      5-min Rain = 0
KBO1 131921Z 30012KT 16/M07 A2997 RMK A01 T01561072  RH  020%=      5-min Rain = 0
KBO1 131922Z 31011KT 16/M07 A2997 RMK A01 T01571074  RH  020%=      5-min Rain = 0
KBO1 131923Z 30013KT 16/M07 A2997 RMK A01 T01581073  RH  020%=      5-min Rain = 0
KBO1 131924Z 30012KT 16/M07 A2997 RMK A01 T01571074  RH  020%=      5-min Rain = 0
KBO1 131925Z 30012KT 16/M07 A2997 RMK A01 T01571073  RH  020%=      5-min Rain = 0
KBO1 131926Z 30013KT 16/M07 A2997 RMK A01 T01581073  RH  020%=      5-min Rain = 0
KBO1 131927Z 31012KT 16/M07 A2997 RMK A01 T01571073  RH  020%=      5-min Rain = 0
KBO1 131928Z 29010KT 16/M07 A2997 RMK A01 T01571071  RH  020%=      5-min Rain = 0
KBO1 131929Z 31010KT 16/M07 A2997 RMK A01 T01591068  RH  020%=      5-min Rain = 0
KBO1 131930Z 31012KT 16/M07 A2996 RMK A01 T01601070  RH  020%=      5-min Rain = 0
KBO1 131931Z 31011KT 16/M07 A2996 RMK A01 T01591070  RH  020%=      5-min Rain = 0
KBO1 131932Z 31011KT 16/M07 A2996 RMK A01 T01591070  RH  020%=      5-min Rain = 0
KBO1 131933Z 30012KT 16/M07 A2996 RMK A01 T01581071  RH  020%=      5-min Rain = 0
KBO1 131934Z 31012KT 16/M07 A2996 RMK A01 T01581073  RH  020%=      5-min Rain = 0
KBO1 131935Z 30012KT 16/M07 A2996 RMK A01 T01581073  RH  020%=      5-min Rain = 0
KBO1 131936Z 30012KT 16/M07 A2996 RMK A01 T01591073  RH  020%=      5-min Rain = 0
KBO1 131937Z 30014KT 16/M08 A2996 RMK A01 T01581076  RH  019%=      5-min Rain = 0
KBO1 131938Z 30012KT 16/M08 A2996 RMK A01 T01571077  RH  019%=      5-min Rain = 0
KBO1 131939Z 31011KT 16/M08 A2996 RMK A01 T01561077  RH  019%=      5-min Rain = 0
KBO1 131940Z 30012KT 16/M08 A2996 RMK A01 T01561075  RH  020%=      5-min Rain = 0
KBO1 131941Z 31010KT 16/M08 A2996 RMK A01 T01561077  RH  019%=      5-min Rain = 0
KBO1 131942Z 31011KT 16/M08 A2996 RMK A01 T01561075  RH  020%=      5-min Rain = 0
KBO1 131943Z 31014KT 16/M08 A2996 RMK A01 T01571079  RH  019%=      5-min Rain = 0
KBO1 131944Z 31013KT 16/M08 A2996 RMK A01 T01571081  RH  019%=      5-min Rain = 0
KBO1 131945Z 31013KT 16/M08 A2996 RMK A01 T01561081  RH  019%=      5-min Rain = 0
KBO1 131946Z 31012KT 16/M08 A2996 RMK A01 T01551083  RH  019%=      5-min Rain = 0
KBO1 131947Z 31013KT 16/M08 A2996 RMK A01 T01551082  RH  019%=      5-min Rain = 0
KBO1 131948Z 30013KT 16/M08 A2996 RMK A01 T01551083  RH  019%=      5-min Rain = 0
KBO1 131949Z 31012KT 16/M08 A2996 RMK A01 T01551082  RH  019%=      5-min Rain = 0
KBO1 131950Z 30012KT 16/M08 A2996 RMK A01 T01561082  RH  019%=      5-min Rain = 0
KBO1 131951Z 30011KT 16/M08 A2996 RMK A01 T01571078  RH  019%=      5-min Rain = 0
KBO1 131952Z 31012KT 16/M08 A2996 RMK A01 T01571080  RH  019%=      5-min Rain = 0
KBO1 131953Z 30013KT 16/M08 A2996 RMK A01 T01571082  RH  019%=      5-min Rain = 0
KBO1 131954Z 30012KT 16/M08 A2996 RMK A01 T01571082  RH  019%=      5-min Rain = 0
KBO1 131955Z 31011KT 16/M08 A2996 RMK A01 T01581081  RH  019%=      5-min Rain = 0
KBO1 131956Z 32011KT 16/M08 A2996 RMK A01 T01581081  RH  019%=      5-min Rain = 0
KBO1 131957Z 32014KT 16/M08 A2996 RMK A01 T01581078  RH  019%=      5-min Rain = 0
KBO1 131958Z 32012KT 16/M08 A2996 RMK A01 T01581080  RH  019%=      5-min Rain = 0
KBO1 131959Z 31014KT 16/M08 A2996 RMK A01 T01581081  RH  019%=      5-min Rain = 0
KBO1 132000Z 30012KT 16/M08 A2996 RMK A01 T01581083  RH  018%=      5-min Rain = 0
KBO1 132001Z 31011KT 16/M08 A2996 RMK A01 T01581081  RH  019%=      5-min Rain = 0
KBO1 132002Z 32013KT 16/M08 A2996 RMK A01 T01581082  RH  018%=      5-min Rain = 0
KBO1 132003Z 32013KT 16/M08 A2996 RMK A01 T01581083  RH  018%=      5-min Rain = 0
KBO1 132004Z 31013KT 16/M08 A2996 RMK A01 T01581081  RH  019%=      5-min Rain = 0
KBO1 132005Z 31012KT 16/M08 A2996 RMK A01 T01581082  RH  019%=      5-min Rain = 0
KBO1 132006Z 31011KT 16/M08 A2996 RMK A01 T01571081  RH  019%=      5-min Rain = 0
KBO1 132007Z 30011KT 16/M08 A2996 RMK A01 T01591078  RH  019%=      5-min Rain = 0
KBO1 132008Z 31012KT 16/M08 A2996 RMK A01 T01601080  RH  018%=      5-min Rain = 0
KBO1 132009Z 31012KT 16/M08 A2996 RMK A01 T01601081  RH  018%=      5-min Rain = 0
KBO1 132010Z 31013KT 16/M08 A2996 RMK A01 T01591084  RH  018%=      5-min Rain = 0
KBO1 132011Z 31013KT 16/M08 A2996 RMK A01 T01591082  RH  018%=      5-min Rain = 0
KBO1 132012Z 31012KT 16/M08 A2996 RMK A01 T01591081  RH  018%=      5-min Rain = 0
KBO1 132013Z 31012KT 16/M08 A2995 RMK A01 T01591083  RH  018%=      5-min Rain = 0
KBO1 132014Z 31012KT 16/M08 A2996 RMK A01 T01591083  RH  018%=      5-min Rain = 0
KBO1 132015Z 32011KT 16/M08 A2996 RMK A01 T01591080  RH  019%=      5-min Rain = 0
KBO1 132016Z 31013KT 16/M08 A2995 RMK A01 T01601078  RH  019%=      5-min Rain = 0
KBO1 132017Z 30013KT 16/M08 A2995 RMK A01 T01621077  RH  019%=      5-min Rain = 0
KBO1 132018Z 31013KT 16/M08 A2995 RMK A01 T01611081  RH  018%=      5-min Rain = 0
KBO1 132019Z 32012KT 16/M08 A2995 RMK A01 T01601080  RH  019%=      5-min Rain = 0
KBO1 132020Z 32014KT 16/M08 A2995 RMK A01 T01601081  RH  018%=      5-min Rain = 0
KBO1 132021Z 32014KT 16/M08 A2995 RMK A01 T01601083  RH  018%=      5-min Rain = 0
KBO1 132022Z 31013KT 16/M08 A2995 RMK A01 T01591084  RH  018%=      5-min Rain = 0
KBO1 132023Z 32010KT 16/M08 A2995 RMK A01 T01581083  RH  018%=      5-min Rain = 0
KBO1 132024Z 32012KT 16/M08 A2995 RMK A01 T01601080  RH  018%=      5-min Rain = 0
KBO1 132025Z 32011KT 16/M09 A2995 RMK A01 T01601085  RH  018%=      5-min Rain = 0
KBO1 132026Z 32011KT 16/M08 A2995 RMK A01 T01601082  RH  018%=      5-min Rain = 0
KBO1 132027Z 31010KT 16/M08 A2995 RMK A01 T01601079  RH  019%=      5-min Rain = 0
KBO1 132028Z 31011KT 16/M08 A2995 RMK A01 T01621077  RH  019%=      5-min Rain = 0
KBO1 132029Z 31012KT 16/M08 A2995 RMK A01 T01631078  RH  018%=      5-min Rain = 0
KBO1 132030Z 30011KT 16/M08 A2995 RMK A01 T01621083  RH  018%=      5-min Rain = 0
KBO1 132031Z 29011KT 16/M08 A2995 RMK A01 T01621081  RH  018%=      5-min Rain = 0
KBO1 132032Z 31012KT 16/M08 A2995 RMK A01 T01621082  RH  018%=      5-min Rain = 0
KBO1 132033Z 31010KT 16/M08 A2995 RMK A01 T01611083  RH  018%=      5-min Rain = 0
KBO1 132034Z 30011KT 16/M08 A2995 RMK A01 T01631079  RH  018%=      5-min Rain = 0
KBO1 132035Z 31010KT 16/M08 A2995 RMK A01 T01641084  RH  018%=      5-min Rain = 0
KBO1 132036Z 31011KT 16/M08 A2995 RMK A01 T01641082  RH  018%=      5-min Rain = 0
KBO1 132037Z 30011KT 16/M08 A2995 RMK A01 T01621083  RH  018%=      5-min Rain = 0
KBO1 132038Z 30010KT 16/M08 A2995 RMK A01 T01621084  RH  018%=      5-min Rain = 0
KBO1 132039Z 30008KT 16/M08 A2995 RMK A01 T01621077  RH  019%=      5-min Rain = 0
KBO1 132040Z 31009KT 17/M07 A2995 RMK A01 T01651072  RH  019%=      5-min Rain = 0
KBO1 132041Z 32009KT 17/M08 A2995 RMK A01 T01661079  RH  018%=      5-min Rain = 0
KBO1 132042Z 31009KT 17/M08 A2995 RMK A01 T01661078  RH  018%=      5-min Rain = 0
KBO1 132043Z 30012KT 17/M08 A2995 RMK A01 T01651078  RH  018%=      5-min Rain = 0
KBO1 132044Z 30010KT 17/M08 A2995 RMK A01 T01651084  RH  017%=      5-min Rain = 0
KBO1 132045Z 30010KT 16/M08 A2995 RMK A01 T01631081  RH  018%=      5-min Rain = 0
KBO1 132046Z 29011KT 16/M08 A2995 RMK A01 T01641079  RH  018%=      5-min Rain = 0
KBO1 132047Z 30009KT 16/M08 A2995 RMK A01 T01641082  RH  018%=      5-min Rain = 0
KBO1 132048Z 31011KT 16/M08 A2995 RMK A01 T01641083  RH  018%=      5-min Rain = 0
KBO1 132049Z 30009KT 16/M08 A2995 RMK A01 T01641082  RH  018%=      5-min Rain = 0
KBO1 132050Z 29011KT 17/M08 A2995 RMK A01 T01651080  RH  018%=      5-min Rain = 0
KBO1 132051Z 29010KT 17/M08 A2995 RMK A01 T01651081  RH  018%=      5-min Rain = 0
KBO1 132052Z 31010KT 17/M08 A2995 RMK A01 T01651078  RH  018%=      5-min Rain = 0
KBO1 132053Z 30011KT 17/M08 A2995 RMK A01 T01661077  RH  018%=      5-min Rain = 0
KBO1 132054Z 30010KT 17/M08 A2995 RMK A01 T01671079  RH  018%=      5-min Rain = 0
KBO1 132055Z 30011KT 17/M08 A2995 RMK A01 T01661081  RH  018%=      5-min Rain = 0
KBO1 132056Z 31011KT 17/M08 A2995 RMK A01 T01661078  RH  018%=      5-min Rain = 0
KBO1 132057Z 31012KT 17/M08 A2995 RMK A01 T01671081  RH  017%=      5-min Rain = 0
KBO1 132058Z 30009KT 17/M08 A2995 RMK A01 T01671077  RH  018%=      5-min Rain = 0
KBO1 132059Z 31008KT 17/M07 A2995 RMK A01 T01681073  RH  019%=      5-min Rain = 0
KBO1 132100Z 31011KT 17/M07 A2994 RMK A01 T01711074  RH  018%=      5-min Rain = 0
KBO1 132101Z 31011KT 17/M08 A2994 RMK A01 T01711078  RH  017%=      5-min Rain = 0
KBO1 132102Z 30011KT 17/M08 A2994 RMK A01 T01691080  RH  017%=      5-min Rain = 0
KBO1 132103Z 30011KT 17/M08 A2994 RMK A01 T01681080  RH  018%=      5-min Rain = 0
KBO1 132104Z 30010KT 17/M08 A2994 RMK A01 T01681076  RH  018%=      5-min Rain = 0
KBO1 132105Z 30009KT 17/M08 A2994 RMK A01 T01681079  RH  018%=      5-min Rain = 0
KBO1 132106Z 30010KT 17/M08 A2994 RMK A01 T01691082  RH  017%=      5-min Rain = 0
KBO1 132107Z 31009KT 17/M08 A2994 RMK A01 T01681081  RH  017%=      5-min Rain = 0
KBO1 132108Z 29010KT 17/M08 A2994 RMK A01 T01681076  RH  018%=      5-min Rain = 0
KBO1 132109Z 30009KT 17/M08 A2994 RMK A01 T01701081  RH  017%=      5-min Rain = 0
KBO1 132110Z 31008KT 17/M08 A2994 RMK A01 T01691081  RH  017%=      5-min Rain = 0
KBO1 132111Z 30009KT 17/M08 A2994 RMK A01 T01701078  RH  018%=      5-min Rain = 0
KBO1 132112Z 28007KT 17/M08 A2994 RMK A01 T01701078  RH  018%=      5-min Rain = 0
KBO1 132113Z 29007KT 17/M08 A2994 RMK A01 T01711081  RH  017%=      5-min Rain = 0
KBO1 132114Z 29009KT 17/M08 A2994 RMK A01 T01701082  RH  017%=      5-min Rain = 0
KBO1 132115Z 27006KT 17/M08 A2994 RMK A01 T01691081  RH  017%=      5-min Rain = 0
KBO1 132116Z 28008KT 17/M08 A2994 RMK A01 T01691080  RH  017%=      5-min Rain = 0
KBO1 132117Z 29007KT 17/M08 A2994 RMK A01 T01691079  RH  017%=      5-min Rain = 0
KBO1 132118Z 29007KT 17/M08 A2994 RMK A01 T01681082  RH  017%=      5-min Rain = 0
KBO1 132119Z 29008KT 17/M08 A2994 RMK A01 T01691078  RH  018%=      5-min Rain = 0
KBO1 132120Z 29008KT 17/M08 A2994 RMK A01 T01691082  RH  017%=      5-min Rain = 0
KBO1 132121Z 28007KT 17/M08 A2994 RMK A01 T01681083  RH  017%=      5-min Rain = 0
KBO1 132122Z 29005KT 17/M08 A2994 RMK A01 T01681084  RH  017%=      5-min Rain = 0
KBO1 132123Z 28007KT 17/M08 A2994 RMK A01 T01691076  RH  018%=      5-min Rain = 0
KBO1 132124Z 29007KT 17/M08 A2994 RMK A01 T01711081  RH  017%=      5-min Rain = 0
KBO1 132125Z 31005KT 17/M08 A2994 RMK A01 T01701084  RH  017%=      5-min Rain = 0
KBO1 132126Z 29005KT 17/M08 A2994 RMK A01 T01691081  RH  017%=      5-min Rain = 0
KBO1 132127Z 30008KT 17/M08 A2994 RMK A01 T01701082  RH  017%=      5-min Rain = 0
KBO1 132128Z 30007KT 17/M08 A2994 RMK A01 T01711083  RH  017%=      5-min Rain = 0
KBO1 132129Z 29006KT 17/M08 A2994 RMK A01 T01711082  RH  017%=      5-min Rain = 0
KBO1 132130Z 28005KT 17/M08 A2994 RMK A01 T01711082  RH  017%=      5-min Rain = 0
KBO1 132131Z 29005KT 17/M08 A2994 RMK A01 T01721079  RH  017%=      5-min Rain = 0
KBO1 132132Z 30004KT 17/M09 A2994 RMK A01 T01721085  RH  016%=      5-min Rain = 0
KBO1 132133Z 31007KT 17/M08 A2993 RMK A01 T01721081  RH  017%=      5-min Rain = 0
KBO1 132134Z 30007KT 17/M08 A2993 RMK A01 T01731078  RH  017%=      5-min Rain = 0
KBO1 132135Z 29007KT 17/M08 A2993 RMK A01 T01731081  RH  017%=      5-min Rain = 0
KBO1 132136Z 30005KT 17/M09 A2993 RMK A01 T01731085  RH  016%=      5-min Rain = 0
KBO1 132137Z 30006KT 17/M08 A2993 RMK A01 T01731083  RH  017%=      5-min Rain = 0
KBO1 132138Z 30006KT 17/M08 A2993 RMK A01 T01731080  RH  017%=      5-min Rain = 0
KBO1 132139Z 31006KT 17/M08 A2993 RMK A01 T01731084  RH  017%=      5-min Rain = 0
KBO1 132140Z 31005KT 17/M08 A2993 RMK A01 T01731081  RH  017%=      5-min Rain = 0
KBO1 132141Z 30007KT 17/M08 A2993 RMK A01 T01731079  RH  017%=      5-min Rain = 0
KBO1 132142Z 27005KT 17/M08 A2993 RMK A01 T01741078  RH  017%=      5-min Rain = 0
KBO1 132143Z 28004KT 18/M08 A2993 RMK A01 T01751083  RH  016%=      5-min Rain = 0
KBO1 132144Z 30004KT 18/M08 A2993 RMK A01 T01751084  RH  016%=      5-min Rain = 0
KBO1 132145Z 30006KT 18/M08 A2993 RMK A01 T01751081  RH  017%=      5-min Rain = 0
KBO1 132146Z 29005KT 18/M09 A2993 RMK A01 T01761085  RH  016%=      5-min Rain = 0
KBO1 132147Z 29005KT 18/M08 A2993 RMK A01 T01751083  RH  016%=      5-min Rain = 0
KBO1 132148Z 27004KT 18/M08 A2993 RMK A01 T01751080  RH  017%=      5-min Rain = 0
KBO1 132149Z 23004KT 18/M08 A2993 RMK A01 T01761084  RH  016%=      5-min Rain = 0
KBO1 132150Z 27003KT 18/M08 A2993 RMK A01 T01771084  RH  016%=      5-min Rain = 0
KBO1 132151Z 31005KT 18/M08 A2993 RMK A01 T01771084  RH  016%=      5-min Rain = 0
KBO1 132152Z 30005KT 18/M08 A2993 RMK A01 T01771083  RH  016%=      5-min Rain = 0
KBO1 132153Z 29005KT 18/M09 A2993 RMK A01 T01771085  RH  016%=      5-min Rain = 0
KBO1 132154Z 29004KT 18/M09 A2993 RMK A01 T01761085  RH  016%=      5-min Rain = 0
KBO1 132155Z 26005KT 18/M08 A2993 RMK A01 T01761084  RH  016%=      5-min Rain = 0
KBO1 132156Z 27004KT 18/M09 A2993 RMK A01 T01761093  RH  015%=      5-min Rain = 0
KBO1 132157Z 26004KT 18/M09 A2993 RMK A01 T01771091  RH  015%=      5-min Rain = 0
KBO1 132158Z 26005KT 18/M09 A2993 RMK A01 T01771087  RH  016%=      5-min Rain = 0
KBO1 132159Z 27004KT 18/M09 A2993 RMK A01 T01781086  RH  016%=      5-min Rain = 0
KBO1 132200Z 29004KT 18/M09 A2993 RMK A01 T01791088  RH  015%=      5-min Rain = 0
KBO1 132201Z 28005KT 18/M09 A2993 RMK A01 T01791090  RH  015%=      5-min Rain = 0
KBO1 132202Z 28005KT 18/M09 A2993 RMK A01 T01791090  RH  015%=      5-min Rain = 0
KBO1 132203Z 28006KT 18/M09 A2993 RMK A01 T01791086  RH  016%=      5-min Rain = 0
KBO1 132204Z 28005KT 18/M09 A2993 RMK A01 T01791092  RH  015%=      5-min Rain = 0
KBO1 132205Z 28006KT 18/M09 A2993 RMK A01 T01781094  RH  015%=      5-min Rain = 0
KBO1 132206Z 30005KT 18/M09 A2993 RMK A01 T01781094  RH  015%=      5-min Rain = 0
KBO1 132207Z 30006KT 18/M10 A2993 RMK A01 T01771095  RH  015%=      5-min Rain = 0
KBO1 132208Z 29006KT 18/M10 A2993 RMK A01 T01771097  RH  015%=      5-min Rain = 0
KBO1 132209Z 30007KT 18/M09 A2993 RMK A01 T01761092  RH  015%=      5-min Rain = 0
KBO1 132210Z 30007KT 18/M09 A2993 RMK A01 T01771094  RH  015%=      5-min Rain = 0
KBO1 132211Z 30007KT 18/M09 A2993 RMK A01 T01771094  RH  015%=      5-min Rain = 0
KBO1 132212Z 30006KT 18/M10 A2993 RMK A01 T01781095  RH  015%=      5-min Rain = 0
KBO1 132213Z 31004KT 18/M10 A2992 RMK A01 T01781095  RH  015%=      5-min Rain = 0
KBO1 132214Z 30005KT 18/M09 A2992 RMK A01 T01781093  RH  015%=      5-min Rain = 0
KBO1 132215Z 29005KT 18/M09 A2992 RMK A01 T01791086  RH  016%=      5-min Rain = 0
KBO1 132216Z 28005KT 18/M09 A2992 RMK A01 T01801090  RH  015%=      5-min Rain = 0
KBO1 132217Z 28005KT 18/M10 A2992 RMK A01 T01801097  RH  014%=      5-min Rain = 0
KBO1 132218Z 26005KT 18/M10 A2992 RMK A01 T01791099  RH  014%=      5-min Rain = 0
KBO1 132219Z 27006KT 18/M09 A2992 RMK A01 T01791089  RH  015%=      5-min Rain = 0
KBO1 132220Z 28006KT 18/M09 A2992 RMK A01 T01801091  RH  015%=      5-min Rain = 0
KBO1 132221Z 29005KT 18/M09 A2992 RMK A01 T01791087  RH  015%=      5-min Rain = 0
KBO1 132222Z 30004KT 18/M09 A2992 RMK A01 T01791089  RH  015%=      5-min Rain = 0
KBO1 132223Z 29005KT 18/M09 A2992 RMK A01 T01801087  RH  015%=      5-min Rain = 0
KBO1 132224Z 27006KT 18/M09 A2992 RMK A01 T01801092  RH  015%=      5-min Rain = 0
KBO1 132225Z 27005KT 18/M09 A2992 RMK A01 T01801093  RH  015%=      5-min Rain = 0
KBO1 132226Z 27005KT 18/M09 A2992 RMK A01 T01801094  RH  015%=      5-min Rain = 0
KBO1 132227Z 26003KT 18/M10 A2992 RMK A01 T01791095  RH  015%=      5-min Rain = 0
KBO1 132228Z 25004KT 18/M09 A2992 RMK A01 T01791085  RH  016%=      5-min Rain = 0
KBO1 132229Z 26005KT 18/M09 A2992 RMK A01 T01801086  RH  016%=      5-min Rain = 0
KBO1 132230Z 28005KT 18/M08 A2992 RMK A01 T01801084  RH  016%=      5-min Rain = 0
KBO1 132231Z 30006KT 18/M08 A2992 RMK A01 T01801078  RH  017%=      5-min Rain = 0
KBO1 132232Z 30006KT 18/M08 A2992 RMK A01 T01801078  RH  017%=      5-min Rain = 0
KBO1 132233Z 30005KT 18/M09 A2992 RMK A01 T01791085  RH  016%=      5-min Rain = 0
KBO1 132234Z 28005KT 18/M09 A2992 RMK A01 T01771087  RH  016%=      5-min Rain = 0
KBO1 132235Z 27003KT 18/M09 A2991 RMK A01 T01771087  RH  016%=      5-min Rain = 0
KBO1 132236Z 28004KT 18/M09 A2991 RMK A01 T01781089  RH  015%=      5-min Rain = 0
KBO1 132237Z 29005KT 18/M09 A2991 RMK A01 T01781087  RH  016%=      5-min Rain = 0
KBO1 132238Z 27004KT 18/M09 A2991 RMK A01 T01781087  RH  016%=      5-min Rain = 0
KBO1 132239Z 28004KT 18/M08 A2992 RMK A01 T01791079  RH  017%=      5-min Rain = 0
KBO1 132240Z 30005KT 18/M08 A2992 RMK A01 T01791082  RH  016%=      5-min Rain = 0
KBO1 132241Z 30005KT 18/M08 A2992 RMK A01 T01791082  RH  016%=      5-min Rain = 0
KBO1 132242Z 30004KT 18/M08 A2992 RMK A01 T01781080  RH  017%=      5-min Rain = 0
KBO1 132243Z 30005KT 18/M08 A2992 RMK A01 T01781078  RH  017%=      5-min Rain = 0
KBO1 132244Z 31004KT 18/M08 A2992 RMK A01 T01771083  RH  016%=      5-min Rain = 0
KBO1 132245Z 31004KT 18/M08 A2992 RMK A01 T01771083  RH  016%=      5-min Rain = 0
KBO1 132246Z 31004KT 18/M09 A2991 RMK A01 T01761085  RH  016%=      5-min Rain = 0
KBO1 132247Z 32003KT 18/M09 A2991 RMK A01 T01761085  RH  016%=      5-min Rain = 0
KBO1 132248Z 31003KT 18/M08 A2991 RMK A01 T01761082  RH  016%=      5-min Rain = 0
KBO1 132249Z 31002KT 18/M08 A2991 RMK A01 T01761080  RH  017%=      5-min Rain = 0
KBO1 132250Z 31002KT 18/M09 A2992 RMK A01 T01761086  RH  016%=      5-min Rain = 0
KBO1 132251Z 31002KT 18/M08 A2992 RMK A01 T01761084  RH  016%=      5-min Rain = 0
KBO1 132252Z 31002KT 18/M08 A2992 RMK A01 T01771083  RH  016%=      5-min Rain = 0
KBO1 132253Z 31002KT 18/M08 A2992 RMK A01 T01771084  RH  016%=      5-min Rain = 0
KBO1 132254Z 32003KT 18/M08 A2992 RMK A01 T01771081  RH  016%=      5-min Rain = 0
KBO1 132255Z 32003KT 18/M08 A2992 RMK A01 T01771083  RH  016%=      5-min Rain = 0
KBO1 132256Z 33001KT 18/M08 A2992 RMK A01 T01771082  RH  016%=      5-min Rain = 0
KBO1 132257Z 31002KT 18/M08 A2992 RMK A01 T01771081  RH  016%=      5-min Rain = 0
KBO1 132258Z 31002KT 18/M08 A2992 RMK A01 T01771083  RH  016%=      5-min Rain = 0
KBO1 132259Z 33002KT 18/M08 A2992 RMK A01 T01771081  RH  016%=      5-min Rain = 0
KBO1 132300Z 32003KT 18/M08 A2992 RMK A01 T01771081  RH  016%=      5-min Rain = 0
KBO1 132301Z 33003KT 18/M08 A2992 RMK A01 T01771079  RH  017%=      5-min Rain = 0
KBO1 132302Z 33002KT 18/M08 A2992 RMK A01 T01761080  RH  017%=      5-min Rain = 0
KBO1 132303Z 33002KT 18/M08 A2992 RMK A01 T01761082  RH  016%=      5-min Rain = 0
KBO1 132304Z 33002KT 18/M08 A2992 RMK A01 T01761083  RH  016%=      5-min Rain = 0
KBO1 132305Z 33002KT 18/M08 A2992 RMK A01 T01751079  RH  017%=      5-min Rain = 0
KBO1 132306Z 33002KT 18/M08 A2992 RMK A01 T01751075  RH  017%=      5-min Rain = 0
KBO1 132307Z 30002KT 17/M07 A2992 RMK A01 T01741074  RH  018%=      5-min Rain = 0
KBO1 132308Z 30001KT 17/M08 A2992 RMK A01 T01741077  RH  017%=      5-min Rain = 0
KBO1 132309Z 33002KT 17/M08 A2992 RMK A01 T01741076  RH  017%=      5-min Rain = 0
KBO1 132310Z 34001KT 17/M08 A2992 RMK A01 T01741078  RH  017%=      5-min Rain = 0
KBO1 132311Z 34001KT 17/M08 A2992 RMK A01 T01731079  RH  017%=      5-min Rain = 0
KBO1 132312Z 35001KT 17/M08 A2992 RMK A01 T01731077  RH  017%=      5-min Rain = 0
KBO1 132313Z 35001KT 17/M08 A2992 RMK A01 T01721077  RH  018%=      5-min Rain = 0
KBO1 132314Z 00000KT 17/M08 A2992 RMK A01 T01721078  RH  017%=      5-min Rain = 0
KBO1 132315Z 00000KT 17/M08 A2992 RMK A01 T01711075  RH  018%=      5-min Rain = 0
KBO1 132316Z 00000KT 17/M07 A2992 RMK A01 T01711071  RH  018%=      5-min Rain = 0
KBO1 132317Z 08000KT 17/M07 A2992 RMK A01 T01711071  RH  018%=      5-min Rain = 0
KBO1 132318Z 09001KT 17/M07 A2992 RMK A01 T01711071  RH  019%=      5-min Rain = 0
KBO1 132319Z 10001KT 17/M07 A2992 RMK A01 T01691071  RH  019%=      5-min Rain = 0
KBO1 132320Z 10001KT 17/M07 A2992 RMK A01 T01691066  RH  019%=      5-min Rain = 0
KBO1 132321Z 10001KT 17/M07 A2992 RMK A01 T01681065  RH  020%=      5-min Rain = 0
KBO1 132322Z 10001KT 17/M07 A2992 RMK A01 T01671067  RH  020%=      5-min Rain = 0
KBO1 132323Z 10001KT 17/M07 A2992 RMK A01 T01671069  RH  019%=      5-min Rain = 0
KBO1 132324Z 11001KT 17/M05 A2992 RMK A01 T01661054  RH  022%=      5-min Rain = 0
KBO1 132325Z 11001KT 17/M05 A2992 RMK A01 T01661046  RH  023%=      5-min Rain = 0
KBO1 132326Z 10002KT 17/M05 A2992 RMK A01 T01671048  RH  023%=      5-min Rain = 0
KBO1 132327Z 10002KT 17/M05 A2992 RMK A01 T01671051  RH  022%=      5-min Rain = 0
KBO1 132328Z 10002KT 17/M05 A2992 RMK A01 T01671048  RH  022%=      5-min Rain = 0
KBO1 132329Z 10002KT 17/M05 A2992 RMK A01 T01671053  RH  022%=      5-min Rain = 0
KBO1 132330Z 09002KT 17/M06 A2991 RMK A01 T01651062  RH  021%=      5-min Rain = 0
KBO1 132331Z 09002KT 16/M06 A2991 RMK A01 T01631063  RH  021%=      5-min Rain = 0
KBO1 132332Z 09002KT 16/M06 A2991 RMK A01 T01621059  RH  021%=      5-min Rain = 0
KBO1 132333Z 09002KT 16/M06 A2991 RMK A01 T01601056  RH  022%=      5-min Rain = 0
KBO1 132334Z 09002KT 16/M05 A2991 RMK A01 T01591053  RH  023%=      5-min Rain = 0
KBO1 132335Z 08002KT 16/M06 A2991 RMK A01 T01581057  RH  022%=      5-min Rain = 0
KBO1 132336Z 08002KT 16/M06 A2991 RMK A01 T01571060  RH  022%=      5-min Rain = 0
KBO1 132337Z 08002KT 16/M06 A2991 RMK A01 T01581062  RH  021%=      5-min Rain = 0
KBO1 132338Z 08001KT 16/M06 A2991 RMK A01 T01571063  RH  021%=      5-min Rain = 0
KBO1 132339Z 08002KT 16/M06 A2991 RMK A01 T01571062  RH  022%=      5-min Rain = 0
KBO1 132340Z 11002KT 16/M06 A2991 RMK A01 T01571061  RH  022%=      5-min Rain = 0
KBO1 132341Z 13003KT 16/M05 A2991 RMK A01 T01571045  RH  025%=      5-min Rain = 0
KBO1 132342Z 12003KT 16/M05 A2991 RMK A01 T01551053  RH  023%=      5-min Rain = 0
KBO1 132343Z 13003KT 15/M06 A2991 RMK A01 T01541055  RH  023%=      5-min Rain = 0
KBO1 132344Z 13003KT 15/M05 A2991 RMK A01 T01521053  RH  024%=      5-min Rain = 0
KBO1 132345Z 13003KT 15/M05 A2991 RMK A01 T01501050  RH  025%=      5-min Rain = 0
KBO1 132346Z 14003KT 15/M04 A2991 RMK A01 T01471044  RH  026%=      5-min Rain = 0
KBO1 132347Z 14004KT 14/M04 A2991 RMK A01 T01431040  RH  028%=      5-min Rain = 0
KBO1 132348Z 14003KT 14/M05 A2991 RMK A01 T01381045  RH  028%=      5-min Rain = 0
KBO1 132349Z 14003KT 14/M05 A2991 RMK A01 T01371049  RH  027%=      5-min Rain = 0
KBO1 132350Z 13003KT 14/M05 A2991 RMK A01 T01371052  RH  026%=      5-min Rain = 0
KBO1 132351Z 13003KT 14/M05 A2991 RMK A01 T01381054  RH  026%=      5-min Rain = 0
KBO1 132352Z 13003KT 14/M06 A2991 RMK A01 T01391055  RH  026%=      5-min Rain = 0
KBO1 132353Z 14003KT 14/M05 A2991 RMK A01 T01381047  RH  027%=      5-min Rain = 0
KBO1 132354Z 16003KT 14/M05 A2992 RMK A01 T01361049  RH  027%=      5-min Rain = 0
KBO1 132355Z 16002KT 14/M05 A2992 RMK A01 T01351051  RH  027%=      5-min Rain = 0
KBO1 132356Z 16002KT 13/M05 A2992 RMK A01 T01341049  RH  028%=      5-min Rain = 0
KBO1 132357Z 16002KT 13/M05 A2992 RMK A01 T01331051  RH  027%=      5-min Rain = 0
KBO1 132358Z 16002KT 13/M05 A2992 RMK A01 T01331052  RH  027%=      5-min Rain = 0
KBO1 132359Z 16002KT 13/M05 A2992 RMK A01 T01321053  RH  027%=      5-min Rain = 0
KBO1 140000Z 17002KT 13/M05 A2992 RMK A01 T01301053  RH  028%=      5-min Rain = 0
KBO1 140001Z 17003KT 13/M05 A2991 RMK A01 T01291053  RH  028%=      5-min Rain = 0
KBO1 140002Z 18003KT 13/M06 A2992 RMK A01 T01291055  RH  027%=      5-min Rain = 0
KBO1 140003Z 18003KT 13/M06 A2992 RMK A01 T01301055  RH  027%=      5-min Rain = 0
KBO1 140004Z 18002KT 13/M06 A2992 RMK A01 T01291055  RH  027%=      5-min Rain = 0
KBO1 140005Z 19002KT 13/M06 A2992 RMK A01 T01281057  RH  027%=      5-min Rain = 0
KBO1 140006Z 19002KT 13/M06 A2992 RMK A01 T01281059  RH  027%=      5-min Rain = 0
KBO1 140007Z 20002KT 13/M06 A2992 RMK A01 T01281061  RH  026%=      5-min Rain = 0
KBO1 140008Z 20002KT 13/M06 A2992 RMK A01 T01291062  RH  026%=      5-min Rain = 0
KBO1 140009Z 20001KT 13/M06 A2992 RMK A01 T01291063  RH  026%=      5-min Rain = 0
KBO1 140010Z 20001KT 13/M06 A2992 RMK A01 T01291063  RH  026%=      5-min Rain = 0
KBO1 140011Z 22001KT 13/M06 A2992 RMK A01 T01301064  RH  025%=      5-min Rain = 0
KBO1 140012Z 24002KT 13/M06 A2993 RMK A01 T01301064  RH  025%=      5-min Rain = 0
KBO1 140013Z 24002KT 13/M06 A2993 RMK A01 T01301064  RH  025%=      5-min Rain = 0
KBO1 140014Z 24002KT 13/M06 A2993 RMK A01 T01301063  RH  025%=      5-min Rain = 0
KBO1 140015Z 24002KT 13/M06 A2993 RMK A01 T01291063  RH  026%=      5-min Rain = 0
KBO1 140016Z 23003KT 13/M06 A2992 RMK A01 T01281063  RH  026%=      5-min Rain = 0
KBO1 140017Z 23003KT 13/M06 A2992 RMK A01 T01271063  RH  026%=      5-min Rain = 0
KBO1 140018Z 22004KT 13/M06 A2992 RMK A01 T01261061  RH  026%=      5-min Rain = 0
KBO1 140019Z 22004KT 13/M06 A2992 RMK A01 T01251060  RH  027%=      5-min Rain = 0
KBO1 140020Z 22004KT 12/M06 A2992 RMK A01 T01221059  RH  028%=      5-min Rain = 0
KBO1 140021Z 22004KT 12/M06 A2992 RMK A01 T01191057  RH  029%=      5-min Rain = 0
KBO1 140022Z 21005KT 11/M06 A2992 RMK A01 T01141055  RH  030%=      5-min Rain = 0
KBO1 140023Z 21005KT 11/M05 A2992 RMK A01 T01091053  RH  032%=      5-min Rain = 0
KBO1 140024Z 21006KT 10/M05 A2992 RMK A01 T01021052  RH  034%=      5-min Rain = 0
KBO1 140025Z 21006KT 10/M05 A2992 RMK A01 T00951051  RH  035%=      5-min Rain = 0
KBO1 140026Z 21006KT 09/M05 A2992 RMK A01 T00891051  RH  037%=      5-min Rain = 0
KBO1 140027Z 21007KT 09/M05 A2992 RMK A01 T00871051  RH  037%=      5-min Rain = 0
KBO1 140028Z 21007KT 09/M05 A2992 RMK A01 T00861052  RH  037%=      5-min Rain = 0
KBO1 140029Z 21007KT 09/M05 A2992 RMK A01 T00861053  RH  037%=      5-min Rain = 0
KBO1 140030Z 21007KT 09/M05 A2992 RMK A01 T00851054  RH  037%=      5-min Rain = 0
KBO1 140031Z 21007KT 09/M05 A2992 RMK A01 T00861054  RH  037%=      5-min Rain = 0
KBO1 140032Z 22007KT 09/M05 A2992 RMK A01 T00861054  RH  036%=      5-min Rain = 0
KBO1 140033Z 22008KT 09/M06 A2992 RMK A01 T00861055  RH  036%=      5-min Rain = 0
KBO1 140034Z 22008KT 09/M06 A2992 RMK A01 T00861055  RH  036%=      5-min Rain = 0
KBO1 140035Z 22008KT 09/M05 A2993 RMK A01 T00871054  RH  037%=      5-min Rain = 0
KBO1 140036Z 22009KT 09/M05 A2993 RMK A01 T00871053  RH  037%=      5-min Rain = 0
KBO1 140037Z 22009KT 09/M05 A2993 RMK A01 T00881053  RH  036%=      5-min Rain = 0
KBO1 140038Z 21009KT 09/M05 A2993 RMK A01 T00871053  RH  037%=      5-min Rain = 0
KBO1 140039Z 21009KT 09/M05 A2993 RMK A01 T00861052  RH  037%=      5-min Rain = 0
KBO1 140040Z 21009KT 08/M05 A2993 RMK A01 T00831052  RH  038%=      5-min Rain = 0
KBO1 140041Z 21009KT 08/M05 A2993 RMK A01 T00811053  RH  038%=      5-min Rain = 0
KBO1 140042Z 22009KT 08/M05 A2993 RMK A01 T00801054  RH  038%=      5-min Rain = 0
KBO1 140043Z 22009KT 08/M05 A2993 RMK A01 T00791053  RH  039%=      5-min Rain = 0
KBO1 140044Z 22009KT 08/M05 A2992 RMK A01 T00781053  RH  039%=      5-min Rain = 0
KBO1 140045Z 22009KT 08/M05 A2992 RMK A01 T00771053  RH  039%=      5-min Rain = 0
KBO1 140046Z 22009KT 08/M05 A2992 RMK A01 T00751053  RH  040%=      5-min Rain = 0
KBO1 140047Z 22009KT 07/M05 A2992 RMK A01 T00741053  RH  040%=      5-min Rain = 0
KBO1 140048Z 22009KT 07/M05 A2992 RMK A01 T00741053  RH  040%=      5-min Rain = 0
KBO1 140049Z 22009KT 07/M05 A2992 RMK A01 T00731052  RH  041%=      5-min Rain = 0
KBO1 140050Z 22009KT 07/M05 A2992 RMK A01 T00731051  RH  041%=      5-min Rain = 0
KBO1 140051Z 22009KT 07/M05 A2992 RMK A01 T00711051  RH  041%=      5-min Rain = 0
KBO1 140052Z 22009KT 07/M05 A2992 RMK A01 T00691050  RH  042%=      5-min Rain = 0
KBO1 140053Z 22009KT 07/M05 A2992 RMK A01 T00671050  RH  043%=      5-min Rain = 0
KBO1 140054Z 22009KT 07/M05 A2992 RMK A01 T00651049  RH  044%=      5-min Rain = 0
KBO1 140055Z 22009KT 06/M05 A2992 RMK A01 T00631049  RH  045%=      5-min Rain = 0
KBO1 140056Z 22009KT 06/M05 A2992 RMK A01 T00601050  RH  045%=      5-min Rain = 0
KBO1 140057Z 22009KT 06/M05 A2992 RMK A01 T00591049  RH  046%=      5-min Rain = 0
KBO1 140058Z 22009KT 06/M05 A2992 RMK A01 T00581050  RH  046%=      5-min Rain = 0
KBO1 140059Z 22010KT 06/M05 A2992 RMK A01 T00581050  RH  046%=      5-min Rain = 0
KBO1 140100Z 22010KT 06/M05 A2992 RMK A01 T00581050  RH  046%=      5-min Rain = 0
KBO1 140101Z 22010KT 06/M05 A2992 RMK A01 T00601048  RH  046%=      5-min Rain = 0
KBO1 140102Z 23010KT 06/M05 A2992 RMK A01 T00611046  RH  046%=      5-min Rain = 0
KBO1 140103Z 23010KT 06/M05 A2992 RMK A01 T00631045  RH  046%=      5-min Rain = 0
KBO1 140104Z 22009KT 06/M05 A2992 RMK A01 T00631045  RH  046%=      5-min Rain = 0
KBO1 140105Z 22009KT 06/M05 A2992 RMK A01 T00631045  RH  046%=      5-min Rain = 0
KBO1 140106Z 22009KT 06/M05 A2992 RMK A01 T00611045  RH  046%=      5-min Rain = 0
KBO1 140107Z 22009KT 06/M05 A2992 RMK A01 T00601046  RH  047%=      5-min Rain = 0
KBO1 140108Z 22009KT 06/M05 A2992 RMK A01 T00591045  RH  047%=      5-min Rain = 0
KBO1 140109Z 22009KT 06/M04 A2992 RMK A01 T00581044  RH  048%=      5-min Rain = 0
KBO1 140110Z 22009KT 06/M04 A2991 RMK A01 T00571043  RH  048%=      5-min Rain = 0
KBO1 140111Z 22009KT 06/M04 A2991 RMK A01 T00561043  RH  049%=      5-min Rain = 0
KBO1 140112Z 22009KT 06/M04 A2991 RMK A01 T00561043  RH  049%=      5-min Rain = 0
KBO1 140113Z 22008KT 06/M04 A2991 RMK A01 T00551042  RH  049%=      5-min Rain = 0
KBO1 140114Z 22008KT 05/M04 A2991 RMK A01 T00541042  RH  050%=      5-min Rain = 0
KBO1 140115Z 22008KT 05/M04 A2991 RMK A01 T00521043  RH  050%=      5-min Rain = 0
KBO1 140116Z 22008KT 05/M04 A2991 RMK A01 T00511043  RH  051%=      5-min Rain = 0
KBO1 140117Z 22009KT 05/M04 A2991 RMK A01 T00481043  RH  051%=      5-min Rain = 0
KBO1 140118Z 22009KT 05/M04 A2991 RMK A01 T00471043  RH  052%=      5-min Rain = 0
KBO1 140119Z 22009KT 05/M04 A2991 RMK A01 T00461043  RH  052%=      5-min Rain = 0
KBO1 140120Z 22009KT 05/M04 A2991 RMK A01 T00451043  RH  053%=      5-min Rain = 0
KBO1 140121Z 22009KT 05/M04 A2991 RMK A01 T00451043  RH  053%=      5-min Rain = 0
KBO1 140122Z 22009KT 05/M04 A2991 RMK A01 T00451043  RH  053%=      5-min Rain = 0
KBO1 140123Z 22009KT 05/M04 A2991 RMK A01 T00451043  RH  053%=      5-min Rain = 0
KBO1 140124Z 22009KT 05/M04 A2991 RMK A01 T00451043  RH  053%=      5-min Rain = 0
KBO1 140125Z 22009KT 04/M04 A2991 RMK A01 T00441043  RH  053%=      5-min Rain = 0
KBO1 140126Z 22009KT 04/M04 A2991 RMK A01 T00441044  RH  053%=      5-min Rain = 0
KBO1 140127Z 22009KT 05/M04 A2991 RMK A01 T00451044  RH  052%=      5-min Rain = 0
KBO1 140128Z 22009KT 05/M05 A2991 RMK A01 T00451045  RH  052%=      5-min Rain = 0
KBO1 140129Z 22009KT 05/M04 A2991 RMK A01 T00461044  RH  052%=      5-min Rain = 0
KBO1 140130Z 22009KT 05/M04 A2991 RMK A01 T00471044  RH  052%=      5-min Rain = 0
KBO1 140131Z 22009KT 05/M04 A2991 RMK A01 T00471043  RH  052%=      5-min Rain = 0
KBO1 140132Z 22009KT 05/M04 A2991 RMK A01 T00471043  RH  052%=      5-min Rain = 0
KBO1 140133Z 22009KT 05/M04 A299 RMK A01 T00481043  RH  052%=      5-min Rain = 0
KBO1 140134Z 22009KT 05/M04 A299 RMK A01 T00481044  RH  052%=      5-min Rain = 0
KBO1 140135Z 22009KT 05/M04 A299 RMK A01 T00481044  RH  051%=      5-min Rain = 0
KBO1 140136Z 22009KT 05/M04 A299 RMK A01 T00481044  RH  051%=      5-min Rain = 0
KBO1 140137Z 22009KT 05/M04 A299 RMK A01 T00481044  RH  051%=      5-min Rain = 0
KBO1 140138Z 22009KT 05/M05 A299 RMK A01 T00461045  RH  051%=      5-min Rain = 0
KBO1 140139Z 22009KT 05/M05 A299 RMK A01 T00461045  RH  052%=      5-min Rain = 0
KBO1 140140Z 23010KT 05/M05 A299 RMK A01 T00461045  RH  052%=      5-min Rain = 0
KBO1 140141Z 22010KT 05/M05 A2991 RMK A01 T00461045  RH  052%=      5-min Rain = 0
KBO1 140142Z 22009KT 05/M04 A2991 RMK A01 T00471044  RH  052%=      5-min Rain = 0
KBO1 140143Z 22010KT 05/M04 A2991 RMK A01 T00481044  RH  051%=      5-min Rain = 0
KBO1 140144Z 22010KT 05/M04 A2991 RMK A01 T00491044  RH  051%=      5-min Rain = 0
KBO1 140145Z 22010KT 05/M04 A2991 RMK A01 T00501043  RH  051%=      5-min Rain = 0
KBO1 140146Z 22010KT 05/M04 A299 RMK A01 T00511043  RH  051%=      5-min Rain = 0
KBO1 140147Z 22010KT 05/M04 A299 RMK A01 T00531043  RH  050%=      5-min Rain = 0
KBO1 140148Z 22009KT 05/M04 A299 RMK A01 T00531043  RH  050%=      5-min Rain = 0
KBO1 140149Z 22009KT 05/M04 A299 RMK A01 T00531043  RH  050%=      5-min Rain = 0
KBO1 140150Z 22009KT 05/M04 A299 RMK A01 T00531043  RH  050%=      5-min Rain = 0
KBO1 140151Z 22009KT 05/M04 A299 RMK A01 T00521043  RH  050%=      5-min Rain = 0
KBO1 140152Z 22009KT 05/M04 A299 RMK A01 T00501043  RH  051%=      5-min Rain = 0
KBO1 140153Z 22009KT 05/M04 A299 RMK A01 T00501043  RH  051%=      5-min Rain = 0
KBO1 140154Z 22009KT 05/M04 A299 RMK A01 T00481043  RH  052%=      5-min Rain = 0
KBO1 140155Z 22009KT 05/M04 A299 RMK A01 T00461042  RH  053%=      5-min Rain = 0
KBO1 140156Z 22010KT 04/M04 A299 RMK A01 T00431043  RH  053%=      5-min Rain = 0
KBO1 140157Z 22010KT 04/M04 A299 RMK A01 T00431043  RH  054%=      5-min Rain = 0
KBO1 140158Z 22010KT 04/M04 A299 RMK A01 T00441043  RH  054%=      5-min Rain = 0
KBO1 140159Z 22010KT 04/M04 A299 RMK A01 T00441042  RH  054%=      5-min Rain = 0
KBO1 140200Z 22010KT 04/M04 A299 RMK A01 T00441042  RH  054%=      5-min Rain = 0
KBO1 140201Z 22011KT 04/M04 A299 RMK A01 T00441042  RH  054%=      5-min Rain = 0
KBO1 140202Z 23011KT 04/M04 A299 RMK A01 T00441042  RH  054%=      5-min Rain = 0
KBO1 140203Z 23011KT 04/M04 A299 RMK A01 T00441042  RH  054%=      5-min Rain = 0
KBO1 140204Z 23011KT 04/M04 A299 RMK A01 T00431042  RH  054%=      5-min Rain = 0
KBO1 140205Z 23011KT 04/M04 A299 RMK A01 T00431042  RH  054%=      5-min Rain = 0
KBO1 140206Z 23011KT 04/M04 A299 RMK A01 T00431042  RH  054%=      5-min Rain = 0
KBO1 140207Z 23011KT 04/M04 A299 RMK A01 T00421041  RH  055%=      5-min Rain = 0
KBO1 140208Z 23010KT 04/M04 A299 RMK A01 T00421041  RH  055%=      5-min Rain = 0
KBO1 140209Z 23010KT 04/M04 A299 RMK A01 T00411041  RH  055%=      5-min Rain = 0
KBO1 140210Z 23011KT 04/M04 A299 RMK A01 T00411041  RH  055%=      5-min Rain = 0
KBO1 140211Z 23011KT 04/M04 A299 RMK A01 T00421041  RH  054%=      5-min Rain = 0
KBO1 140212Z 23011KT 04/M04 A299 RMK A01 T00431041  RH  054%=      5-min Rain = 0
KBO1 140213Z 23011KT 04/M04 A299 RMK A01 T00431041  RH  054%=      5-min Rain = 0
KBO1 140214Z 23011KT 04/M04 A299 RMK A01 T00431041  RH  055%=      5-min Rain = 0
KBO1 140215Z 24012KT 04/M04 A299 RMK A01 T00421041  RH  055%=      5-min Rain = 0
KBO1 140216Z 24013KT 04/M04 A2991 RMK A01 T00411041  RH  055%=      5-min Rain = 0
KBO1 140217Z 24012KT 04/M04 A2991 RMK A01 T00401041  RH  056%=      5-min Rain = 0
KBO1 140218Z 24011KT 04/M04 A2991 RMK A01 T00411039  RH  056%=      5-min Rain = 0
KBO1 140219Z 24012KT 04/M04 A2991 RMK A01 T00431038  RH  056%=      5-min Rain = 0
KBO1 140220Z 24012KT 05/M04 A2991 RMK A01 T00451036  RH  055%=      5-min Rain = 0
KBO1 140221Z 24011KT 05/M04 A2991 RMK A01 T00471036  RH  055%=      5-min Rain = 0
KBO1 140222Z 24011KT 05/M04 A2991 RMK A01 T00481036  RH  055%=      5-min Rain = 0
KBO1 140223Z 24010KT 05/M04 A2991 RMK A01 T00491036  RH  054%=      5-min Rain = 0
KBO1 140224Z 24010KT 05/M04 A2991 RMK A01 T00491036  RH  054%=      5-min Rain = 0
KBO1 140225Z 24010KT 05/M04 A2991 RMK A01 T00491037  RH  054%=      5-min Rain = 0
KBO1 140226Z 24010KT 05/M04 A2991 RMK A01 T00491037  RH  054%=      5-min Rain = 0
KBO1 140227Z 24009KT 05/M04 A299 RMK A01 T00481038  RH  054%=      5-min Rain = 0
KBO1 140228Z 24009KT 05/M04 A299 RMK A01 T00471038  RH  054%=      5-min Rain = 0
KBO1 140229Z 24009KT 05/M04 A299 RMK A01 T00461039  RH  054%=      5-min Rain = 0
KBO1 140230Z 24009KT 05/M04 A299 RMK A01 T00461039  RH  054%=      5-min Rain = 0
KBO1 140231Z 24009KT 05/M04 A299 RMK A01 T00451039  RH  054%=      5-min Rain = 0
KBO1 140232Z 24009KT 05/M04 A299 RMK A01 T00451039  RH  054%=      5-min Rain = 0
KBO1 140233Z 24009KT 04/M04 A299 RMK A01 T00441039  RH  055%=      5-min Rain = 0
KBO1 140234Z 24010KT 04/M04 A299 RMK A01 T00431040  RH  055%=      5-min Rain = 0
KBO1 140235Z 24010KT 04/M04 A299 RMK A01 T00421040  RH  055%=      5-min Rain = 0
KBO1 140236Z 25009KT 04/M04 A299 RMK A01 T00431039  RH  055%=      5-min Rain = 0
KBO1 140237Z 25010KT 04/M04 A299 RMK A01 T00421039  RH  055%=      5-min Rain = 0
KBO1 140238Z 25010KT 04/M04 A299 RMK A01 T00421039  RH  056%=      5-min Rain = 0
KBO1 140239Z 25010KT 04/M04 A299 RMK A01 T00411039  RH  056%=      5-min Rain = 0
KBO1 140240Z 25010KT 04/M04 A299 RMK A01 T00401038  RH  057%=      5-min Rain = 0
KBO1 140241Z 25010KT 04/M04 A299 RMK A01 T00391039  RH  057%=      5-min Rain = 0
KBO1 140242Z 25010KT 04/M04 A299 RMK A01 T00381038  RH  057%=      5-min Rain = 0
KBO1 140243Z 25010KT 04/M04 A2989 RMK A01 T00381038  RH  058%=      5-min Rain = 0
KBO1 140244Z 24010KT 04/M04 A2989 RMK A01 T00371038  RH  058%=      5-min Rain = 0
KBO1 140245Z 24010KT 04/M04 A2989 RMK A01 T00381037  RH  058%=      5-min Rain = 0
KBO1 140246Z 24010KT 04/M04 A2989 RMK A01 T00391036  RH  058%=      5-min Rain = 0
KBO1 140247Z 24010KT 04/M04 A2989 RMK A01 T00411036  RH  057%=      5-min Rain = 0
KBO1 140248Z 24010KT 04/M04 A2989 RMK A01 T00421036  RH  057%=      5-min Rain = 0
KBO1 140249Z 24010KT 04/M04 A2989 RMK A01 T00431036  RH  056%=      5-min Rain = 0
KBO1 140250Z 24010KT 04/M04 A2989 RMK A01 T00441036  RH  056%=      5-min Rain = 0
KBO1 140251Z 24010KT 04/M04 A2989 RMK A01 T00441036  RH  056%=      5-min Rain = 0
KBO1 140252Z 24010KT 04/M04 A2989 RMK A01 T00441035  RH  056%=      5-min Rain = 0
KBO1 140253Z 24010KT 04/M04 A2989 RMK A01 T00441035  RH  056%=      5-min Rain = 0
KBO1 140254Z 24010KT 05/M04 A2989 RMK A01 T00451036  RH  056%=      5-min Rain = 0
KBO1 140255Z 24011KT 05/M04 A2989 RMK A01 T00451037  RH  055%=      5-min Rain = 0
KBO1 140256Z 24010KT 05/M04 A2989 RMK A01 T00461037  RH  055%=      5-min Rain = 0
KBO1 140257Z 25011KT 05/M04 A2989 RMK A01 T00461037  RH  055%=      5-min Rain = 0
KBO1 140258Z 24011KT 05/M04 A2989 RMK A01 T00461037  RH  055%=      5-min Rain = 0
KBO1 140259Z 24011KT 05/M04 A2989 RMK A01 T00471037  RH  055%=      5-min Rain = 0
KBO1 140300Z 24011KT 05/M04 A2989 RMK A01 T00471037  RH  054%=      5-min Rain = 0
KBO1 140301Z 24010KT 05/M04 A2989 RMK A01 T00481038  RH  054%=      5-min Rain = 0
KBO1 140302Z 24010KT 05/M04 A2988 RMK A01 T00491038  RH  053%=      5-min Rain = 0
KBO1 140303Z 24010KT 05/M04 A2988 RMK A01 T00491038  RH  053%=      5-min Rain = 0
KBO1 140304Z 24011KT 05/M04 A2988 RMK A01 T00481038  RH  054%=      5-min Rain = 0
KBO1 140305Z 24011KT 05/M04 A2988 RMK A01 T00471038  RH  054%=      5-min Rain = 0
KBO1 140306Z 24011KT 05/M04 A2988 RMK A01 T00461038  RH  054%=      5-min Rain = 0
KBO1 140307Z 23010KT 05/M04 A2988 RMK A01 T00451038  RH  055%=      5-min Rain = 0
KBO1 140308Z 23010KT 04/M04 A2988 RMK A01 T00441038  RH  055%=      5-min Rain = 0
KBO1 140309Z 24010KT 04/M04 A2988 RMK A01 T00431038  RH  056%=      5-min Rain = 0
KBO1 140310Z 23010KT 04/M04 A2988 RMK A01 T00421038  RH  056%=      5-min Rain = 0
KBO1 140311Z 24010KT 04/M04 A2987 RMK A01 T00411038  RH  056%=      5-min Rain = 0
KBO1 140312Z 24010KT 04/M04 A2987 RMK A01 T00401038  RH  057%=      5-min Rain = 0
KBO1 140313Z 23011KT 04/M04 A2987 RMK A01 T00401038  RH  057%=      5-min Rain = 0
KBO1 140314Z 23010KT 04/M04 A2987 RMK A01 T00401038  RH  057%=      5-min Rain = 0
KBO1 140315Z 24011KT 04/M04 A2987 RMK A01 T00401038  RH  057%=      5-min Rain = 0
KBO1 140316Z 24011KT 04/M04 A2987 RMK A01 T00401038  RH  057%=      5-min Rain = 0
KBO1 140317Z 23011KT 04/M04 A2987 RMK A01 T00401038  RH  057%=      5-min Rain = 0
KBO1 140318Z 23012KT 04/M04 A2987 RMK A01 T00421038  RH  056%=      5-min Rain = 0
KBO1 140319Z 23012KT 04/M04 A2987 RMK A01 T00431038  RH  056%=      5-min Rain = 0
KBO1 140320Z 23011KT 04/M04 A2987 RMK A01 T00431038  RH  056%=      5-min Rain = 0
KBO1 140321Z 23011KT 04/M04 A2987 RMK A01 T00431038  RH  056%=      5-min Rain = 0
KBO1 140322Z 23010KT 04/M04 A2987 RMK A01 T00421037  RH  056%=      5-min Rain = 0
KBO1 140323Z 23010KT 04/M04 A2987 RMK A01 T00421037  RH  056%=      5-min Rain = 0
KBO1 140324Z 24010KT 04/M04 A2987 RMK A01 T00411037  RH  057%=      5-min Rain = 0
KBO1 140325Z 24010KT 04/M04 A2987 RMK A01 T00411037  RH  057%=      5-min Rain = 0
KBO1 140326Z 24010KT 04/M04 A2987 RMK A01 T00411037  RH  057%=      5-min Rain = 0
KBO1 140327Z 24010KT 04/M04 A2987 RMK A01 T00411036  RH  057%=      5-min Rain = 0
KBO1 140328Z 24010KT 04/M04 A2987 RMK A01 T00411036  RH  057%=      5-min Rain = 0
KBO1 140329Z 24010KT 04/M04 A2987 RMK A01 T00401036  RH  058%=      5-min Rain = 0
KBO1 140330Z 24010KT 04/M04 A2987 RMK A01 T00401035  RH  058%=      5-min Rain = 0
KBO1 140331Z 24009KT 04/M04 A2987 RMK A01 T00401035  RH  058%=      5-min Rain = 0
KBO1 140332Z 24009KT 04/M04 A2987 RMK A01 T00401035  RH  058%=      5-min Rain = 0
KBO1 140333Z 25009KT 04/M03 A2987 RMK A01 T00391034  RH  059%=      5-min Rain = 0
KBO1 140334Z 25009KT 04/M03 A2988 RMK A01 T00391034  RH  059%=      5-min Rain = 0
KBO1 140335Z 25009KT 04/M03 A2988 RMK A01 T00391034  RH  059%=      5-min Rain = 0
KBO1 140336Z 26009KT 04/M03 A2988 RMK A01 T00391034  RH  059%=      5-min Rain = 0
KBO1 140337Z 26009KT 04/M04 A2988 RMK A01 T00401035  RH  058%=      5-min Rain = 0
KBO1 140338Z 26008KT 04/M04 A2988 RMK A01 T00411035  RH  058%=      5-min Rain = 0
KBO1 140339Z 27008KT 04/M04 A2988 RMK A01 T00441035  RH  057%=      5-min Rain = 0
KBO1 140340Z 27008KT 05/M04 A2988 RMK A01 T00461035  RH  056%=      5-min Rain = 0
KBO1 140341Z 27008KT 05/M04 A2988 RMK A01 T00501035  RH  054%=      5-min Rain = 0
KBO1 140342Z 27008KT 05/M04 A2988 RMK A01 T00531035  RH  053%=      5-min Rain = 0
KBO1 140343Z 27008KT 06/M04 A2988 RMK A01 T00571035  RH  051%=      5-min Rain = 0
KBO1 140344Z 27008KT 06/M04 A2988 RMK A01 T00581036  RH  051%=      5-min Rain = 0
KBO1 140345Z 27009KT 06/M04 A2988 RMK A01 T00591037  RH  050%=      5-min Rain = 0
KBO1 140346Z 27010KT 06/M04 A2988 RMK A01 T00591037  RH  050%=      5-min Rain = 0
KBO1 140347Z 27010KT 06/M04 A2988 RMK A01 T00591038  RH  050%=      5-min Rain = 0
KBO1 140348Z 28009KT 06/M04 A2988 RMK A01 T00591038  RH  050%=      5-min Rain = 0
KBO1 140349Z 28009KT 06/M04 A2988 RMK A01 T00591038  RH  050%=      5-min Rain = 0
KBO1 140350Z 28009KT 06/M04 A2988 RMK A01 T00591039  RH  050%=      5-min Rain = 0
KBO1 140351Z 27009KT 06/M04 A2988 RMK A01 T00591039  RH  049%=      5-min Rain = 0
KBO1 140352Z 27009KT 06/M04 A2988 RMK A01 T00591039  RH  049%=      5-min Rain = 0
KBO1 140353Z 28010KT 06/M04 A2988 RMK A01 T00591039  RH  050%=      5-min Rain = 0
KBO1 140354Z 28009KT 06/M04 A2988 RMK A01 T00581039  RH  050%=      5-min Rain = 0
KBO1 140355Z 28010KT 06/M04 A2988 RMK A01 T00581038  RH  050%=      5-min Rain = 0
KBO1 140356Z 27009KT 06/M04 A2988 RMK A01 T00581039  RH  050%=      5-min Rain = 0
KBO1 140357Z 28010KT 06/M04 A2988 RMK A01 T00591039  RH  049%=      5-min Rain = 0
KBO1 140358Z 28010KT 06/M04 A2988 RMK A01 T00601039  RH  049%=      5-min Rain = 0
KBO1 140359Z 28011KT 06/M04 A2988 RMK A01 T00611039  RH  049%=      5-min Rain = 0
KBO1 140400Z 28012KT 06/M04 A2988 RMK A01 T00611039  RH  049%=      5-min Rain = 0
KBO1 140401Z 28012KT 06/M04 A2988 RMK A01 T00611038  RH  049%=      5-min Rain = 0
KBO1 140402Z 28012KT 06/M04 A2988 RMK A01 T00611039  RH  049%=      5-min Rain = 0
KBO1 140403Z 28012KT 06/M04 A2988 RMK A01 T00621039  RH  049%=      5-min Rain = 0
KBO1 140404Z 28012KT 06/M04 A2988 RMK A01 T00621039  RH  048%=      5-min Rain = 0
KBO1 140405Z 28012KT 06/M04 A2988 RMK A01 T00631039  RH  048%=      5-min Rain = 0
KBO1 140406Z 28012KT 06/M04 A2988 RMK A01 T00631039  RH  048%=      5-min Rain = 0
KBO1 140407Z 29012KT 06/M04 A2988 RMK A01 T00641039  RH  048%=      5-min Rain = 0
KBO1 140408Z 28011KT 06/M04 A2988 RMK A01 T00641039  RH  048%=      5-min Rain = 0
KBO1 140409Z 28011KT 06/M04 A2988 RMK A01 T00641038  RH  048%=      5-min Rain = 0
KBO1 140410Z 28011KT 06/M04 A2988 RMK A01 T00631039  RH  048%=      5-min Rain = 0
KBO1 140411Z 29012KT 06/M04 A2988 RMK A01 T00631038  RH  048%=      5-min Rain = 0
KBO1 140412Z 29012KT 06/M04 A2989 RMK A01 T00621038  RH  049%=      5-min Rain = 0
KBO1 140413Z 29012KT 06/M04 A2989 RMK A01 T00621038  RH  049%=      5-min Rain = 0
KBO1 140414Z 29012KT 06/M04 A2989 RMK A01 T00631039  RH  048%=      5-min Rain = 0
KBO1 140415Z 29011KT 06/M04 A2989 RMK A01 T00631038  RH  048%=      5-min Rain = 0
KBO1 140416Z 29011KT 06/M04 A2988 RMK A01 T00641038  RH  048%=      5-min Rain = 0
KBO1 140417Z 29011KT 06/M04 A2988 RMK A01 T00631038  RH  048%=      5-min Rain = 0
KBO1 140418Z 30011KT 06/M04 A2989 RMK A01 T00631038  RH  048%=      5-min Rain = 0
KBO1 140419Z 30011KT 06/M04 A2989 RMK A01 T00631039  RH  048%=      5-min Rain = 0
KBO1 140420Z 30011KT 07/M04 A2989 RMK A01 T00651039  RH  047%=      5-min Rain = 0
KBO1 140421Z 30011KT 07/M04 A2989 RMK A01 T00651040  RH  047%=      5-min Rain = 0
KBO1 140422Z 30010KT 07/M04 A2989 RMK A01 T00651040  RH  047%=      5-min Rain = 0
KBO1 140423Z 31010KT 07/M04 A2989 RMK A01 T00661040  RH  047%=      5-min Rain = 0
KBO1 140424Z 31010KT 07/M04 A2988 RMK A01 T00651041  RH  047%=      5-min Rain = 0
KBO1 140425Z 30010KT 07/M04 A2989 RMK A01 T00661041  RH  046%=      5-min Rain = 0
KBO1 140426Z 31010KT 07/M04 A2989 RMK A01 T00661041  RH  046%=      5-min Rain = 0
KBO1 140427Z 31010KT 07/M04 A2989 RMK A01 T00661041  RH  046%=      5-min Rain = 0
KBO1 140428Z 31010KT 07/M04 A2989 RMK A01 T00671041  RH  046%=      5-min Rain = 0
KBO1 140429Z 31010KT 07/M04 A2989 RMK A01 T00681042  RH  045%=      5-min Rain = 0
KBO1 140430Z 31009KT 07/M04 A2989 RMK A01 T00701042  RH  045%=      5-min Rain = 0
KBO1 140431Z 31009KT 07/M04 A2989 RMK A01 T00711042  RH  044%=      5-min Rain = 0
KBO1 140432Z 30008KT 07/M04 A2988 RMK A01 T00721042  RH  044%=      5-min Rain = 0
KBO1 140433Z 30008KT 07/M04 A2988 RMK A01 T00731042  RH  044%=      5-min Rain = 0
KBO1 140434Z 30008KT 07/M04 A2988 RMK A01 T00741042  RH  044%=      5-min Rain = 0
KBO1 140435Z 30008KT 07/M04 A2988 RMK A01 T00741042  RH  044%=      5-min Rain = 0
KBO1 140436Z 30008KT 07/M04 A2988 RMK A01 T00741041  RH  044%=      5-min Rain = 0
KBO1 140437Z 30008KT 07/M04 A2988 RMK A01 T00741041  RH  044%=      5-min Rain = 0
KBO1 140438Z 30008KT 07/M04 A2988 RMK A01 T00731041  RH  044%=      5-min Rain = 0
KBO1 140439Z 30008KT 07/M04 A2988 RMK A01 T00731041  RH  044%=      5-min Rain = 0
KBO1 140440Z 30008KT 07/M04 A2987 RMK A01 T00721041  RH  044%=      5-min Rain = 0
KBO1 140441Z 30008KT 07/M04 A2987 RMK A01 T00721041  RH  044%=      5-min Rain = 0
KBO1 140442Z 31008KT 07/M04 A2987 RMK A01 T00721041  RH  044%=      5-min Rain = 0
KBO1 140443Z 31008KT 07/M04 A2987 RMK A01 T00721043  RH  044%=      5-min Rain = 0
KBO1 140444Z 31008KT 07/M04 A2987 RMK A01 T00741043  RH  043%=      5-min Rain = 0
KBO1 140445Z 31008KT 08/M04 A2987 RMK A01 T00751043  RH  043%=      5-min Rain = 0
KBO1 140446Z 31010KT 08/M04 A2988 RMK A01 T00751043  RH  043%=      5-min Rain = 0
KBO1 140447Z 31011KT 08/M04 A2988 RMK A01 T00761043  RH  043%=      5-min Rain = 0
KBO1 140448Z 32013KT 08/M04 A2989 RMK A01 T00761043  RH  043%=      5-min Rain = 0
KBO1 140449Z 32013KT 08/M04 A2989 RMK A01 T00771042  RH  043%=      5-min Rain = 0
KBO1 140450Z 32013KT 08/M04 A2989 RMK A01 T00791042  RH  042%=      5-min Rain = 0
KBO1 140451Z 32013KT 08/M04 A2989 RMK A01 T00811041  RH  042%=      5-min Rain = 0
KBO1 140452Z 32011KT 08/M04 A2989 RMK A01 T00831041  RH  041%=      5-min Rain = 0
KBO1 140453Z 32011KT 08/M04 A2989 RMK A01 T00841042  RH  041%=      5-min Rain = 0
KBO1 140454Z 31011KT 09/M04 A2989 RMK A01 T00851041  RH  041%=      5-min Rain = 0
KBO1 140455Z 31010KT 09/M04 A2989 RMK A01 T00851041  RH  040%=      5-min Rain = 0
KBO1 140456Z 30009KT 09/M04 A299 RMK A01 T00851041  RH  040%=      5-min Rain = 0
KBO1 140457Z 27008KT 09/M04 A299 RMK A01 T00851039  RH  041%=      5-min Rain = 0
KBO1 140458Z 27008KT 08/M04 A299 RMK A01 T00811038  RH  043%=      5-min Rain = 0
KBO1 140459Z 29007KT 08/M04 A2989 RMK A01 T00771039  RH  044%=      5-min Rain = 0
KBO1 140500Z 30008KT 08/M04 A2989 RMK A01 T00761040  RH  044%=      5-min Rain = 0
KBO1 140501Z 29007KT 08/M04 A2989 RMK A01 T00761041  RH  043%=      5-min Rain = 0
KBO1 140502Z 26006KT 08/M04 A2989 RMK A01 T00771040  RH  043%=      5-min Rain = 0
KBO1 140503Z 25007KT 08/M04 A2989 RMK A01 T00761038  RH  044%=      5-min Rain = 0
KBO1 140504Z 26007KT 07/M04 A2989 RMK A01 T00741038  RH  045%=      5-min Rain = 0
KBO1 140505Z 26006KT 07/M04 A2988 RMK A01 T00731039  RH  045%=      5-min Rain = 0
KBO1 140506Z 26006KT 07/M04 A2988 RMK A01 T00731039  RH  045%=      5-min Rain = 0
KBO1 140507Z 26006KT 07/M04 A2988 RMK A01 T00741040  RH  044%=      5-min Rain = 0
KBO1 140508Z 26007KT 08/M04 A2988 RMK A01 T00761041  RH  043%=      5-min Rain = 0
KBO1 140509Z 25006KT 08/M04 A2988 RMK A01 T00771039  RH  044%=      5-min Rain = 0
KBO1 140510Z 25006KT 08/M04 A2988 RMK A01 T00751037  RH  045%=      5-min Rain = 0
KBO1 140511Z 26005KT 07/M04 A2988 RMK A01 T00721037  RH  046%=      5-min Rain = 0
KBO1 140512Z 28005KT 07/M04 A2988 RMK A01 T00711040  RH  045%=      5-min Rain = 0
KBO1 140513Z 28005KT 07/M04 A2988 RMK A01 T00721041  RH  045%=      5-min Rain = 0
KBO1 140514Z 25006KT 07/M04 A2987 RMK A01 T00731041  RH  044%=      5-min Rain = 0
KBO1 140515Z 23008KT 07/M04 A2987 RMK A01 T00731040  RH  045%=      5-min Rain = 0
KBO1 140516Z 24008KT 07/M04 A2987 RMK A01 T00681038  RH  047%=      5-min Rain = 0
KBO1 140517Z 26007KT 06/M04 A2987 RMK A01 T00631038  RH  049%=      5-min Rain = 0
KBO1 140518Z 25008KT 06/M04 A2987 RMK A01 T00611037  RH  050%=      5-min Rain = 0
KBO1 140519Z 26009KT 06/M04 A2987 RMK A01 T00591036  RH  050%=      5-min Rain = 0
KBO1 140520Z 26009KT 06/M04 A2987 RMK A01 T00581036  RH  051%=      5-min Rain = 0
KBO1 140521Z 26009KT 06/M04 A2987 RMK A01 T00581036  RH  051%=      5-min Rain = 0
KBO1 140522Z 26009KT 06/M04 A2987 RMK A01 T00571036  RH  051%=      5-min Rain = 0
KBO1 140523Z 26010KT 06/M04 A2987 RMK A01 T00571036  RH  051%=      5-min Rain = 0
KBO1 140524Z 25012KT 06/M04 A2987 RMK A01 T00571036  RH  051%=      5-min Rain = 0
KBO1 140525Z 25012KT 06/M04 A2987 RMK A01 T00571036  RH  051%=      5-min Rain = 0
KBO1 140526Z 25012KT 06/M04 A2987 RMK A01 T00591036  RH  051%=      5-min Rain = 0
KBO1 140527Z 25012KT 06/M04 A2987 RMK A01 T00611036  RH  050%=      5-min Rain = 0
KBO1 140528Z 25011KT 06/M04 A2987 RMK A01 T00621036  RH  049%=      5-min Rain = 0
KBO1 140529Z 26010KT 06/M04 A2988 RMK A01 T00621036  RH  050%=      5-min Rain = 0
KBO1 140530Z 26010KT 06/M04 A2988 RMK A01 T00611035  RH  050%=      5-min Rain = 0
KBO1 140531Z 26010KT 06/M04 A2988 RMK A01 T00601035  RH  050%=      5-min Rain = 0
KBO1 140532Z 26011KT 06/M04 A2988 RMK A01 T00601035  RH  050%=      5-min Rain = 0
KBO1 140533Z 26011KT 06/M04 A2988 RMK A01 T00601035  RH  051%=      5-min Rain = 0
KBO1 140534Z 25011KT 06/M04 A2988 RMK A01 T00601035  RH  050%=      5-min Rain = 0
KBO1 140535Z 26011KT 06/M04 A2988 RMK A01 T00621035  RH  050%=      5-min Rain = 0
KBO1 140536Z 26011KT 07/M04 A2988 RMK A01 T00651035  RH  049%=      5-min Rain = 0
KBO1 140537Z 26012KT 07/M04 A2987 RMK A01 T00681035  RH  048%=      5-min Rain = 0
KBO1 140538Z 26012KT 07/M04 A2988 RMK A01 T00711036  RH  047%=      5-min Rain = 0
KBO1 140539Z 26011KT 07/M04 A2988 RMK A01 T00721036  RH  046%=      5-min Rain = 0
KBO1 140540Z 26011KT 07/M04 A2988 RMK A01 T00721036  RH  046%=      5-min Rain = 0
KBO1 140541Z 27011KT 07/M04 A2988 RMK A01 T00711036  RH  046%=      5-min Rain = 0
KBO1 140542Z 27011KT 07/M04 A2988 RMK A01 T00711036  RH  046%=      5-min Rain = 0
KBO1 140543Z 27011KT 07/M04 A2988 RMK A01 T00711036  RH  047%=      5-min Rain = 0
KBO1 140544Z 27010KT 07/M04 A2988 RMK A01 T00701036  RH  047%=      5-min Rain = 0
KBO1 140545Z 27010KT 07/M04 A2988 RMK A01 T00691036  RH  047%=      5-min Rain = 0
KBO1 140546Z 27010KT 07/M04 A2988 RMK A01 T00691036  RH  047%=      5-min Rain = 0
KBO1 140547Z 27010KT 07/M04 A2988 RMK A01 T00691035  RH  047%=      5-min Rain = 0
KBO1 140548Z 28011KT 07/M04 A2988 RMK A01 T00681035  RH  048%=      5-min Rain = 0
KBO1 140549Z 28011KT 07/M04 A2988 RMK A01 T00671036  RH  048%=      5-min Rain = 0
KBO1 140550Z 28010KT 07/M04 A2988 RMK A01 T00671035  RH  048%=      5-min Rain = 0
KBO1 140551Z 28009KT 07/M04 A2988 RMK A01 T00661035  RH  048%=      5-min Rain = 0
KBO1 140552Z 29010KT 06/M04 A2988 RMK A01 T00641035  RH  049%=      5-min Rain = 0
KBO1 140553Z 29010KT 06/M04 A2988 RMK A01 T00631035  RH  050%=      5-min Rain = 0
KBO1 140554Z 29010KT 06/M04 A2988 RMK A01 T00611035  RH  050%=      5-min Rain = 0
KBO1 140555Z 29009KT 06/M03 A2988 RMK A01 T00601034  RH  051%=      5-min Rain = 0
KBO1 140556Z 29009KT 06/M04 A2988 RMK A01 T00581035  RH  051%=      5-min Rain = 0
KBO1 140557Z 29010KT 06/M04 A2988 RMK A01 T00571035  RH  052%=      5-min Rain = 0
KBO1 140558Z 29010KT 06/M03 A2989 RMK A01 T00561034  RH  052%=      5-min Rain = 0
KBO1 140559Z 29011KT 06/M03 A2989 RMK A01 T00551034  RH  053%=      5-min Rain = 0

Page generated in 0.072 seconds.